| time (UTC) | temp C | wind direction | speed KPH | gust KPH | rain 1hr cm | rain 24hr cm | rain mn cm | humidity % | barometer mb |
| 20260503010025 | 19 | 268 | 3.2 | 17.7 | 0.00 | 0.00 | 0.00 | 64 | 1009.5 |
| 20260503005924 | 19 | 240 | 3.2 | 17.7 | 0.00 | 0.00 | 0.00 | 64 | 1009.4 |
| 20260503005832 | 19 | 239 | 3.2 | 17.7 | 0.00 | 0.00 | 0.00 | 64 | 1009.5 |
| 20260503005824 | 19 | 207 | 3.2 | 17.7 | 0.00 | 0.00 | 0.00 | 64 | 1009.5 |
| 20260503005723 | 19 | 231 | 3.2 | 17.7 | 0.00 | 0.00 | 0.00 | 64 | 1009.5 |
| 20260503005622 | 19 | 212 | 3.2 | 17.7 | 0.00 | 0.00 | 0.00 | 63 | 1009.5 |
| 20260503005522 | 19 | 290 | 3.2 | 17.7 | 0.00 | 0.00 | 0.00 | 64 | 1009.5 |
| 20260503005422 | 19 | 274 | 3.2 | 17.7 | 0.00 | 0.00 | 0.00 | 64 | 1009.4 |
| 20260503005330 | 19 | 287 | 3.2 | 17.7 | 0.00 | 0.00 | 0.00 | 63 | 1009.5 |
| 20260503005322 | 19 | 293 | 3.2 | 17.7 | 0.00 | 0.00 | 0.00 | 63 | 1009.5 |
| 20260503005222 | 19 | 283 | 3.2 | 17.7 | 0.00 | 0.00 | 0.00 | 63 | 1009.4 |
| 20260503005122 | 19 | 242 | 3.2 | 11.3 | 0.00 | 0.00 | 0.00 | 63 | 1009.4 |
| 20260503005019 | 19 | 262 | 3.2 | 11.3 | 0.00 | 0.00 | 0.00 | 63 | 1009.4 |
| 20260503004920 | 19 | 274 | 3.2 | 11.3 | 0.00 | 0.00 | 0.00 | 63 | 1009.4 |
| 20260503004827 | 19 | 245 | 3.2 | 11.3 | 0.00 | 0.00 | 0.00 | 63 | 1009.4 |
| 20260503004820 | 19 | 233 | 3.2 | 11.3 | 0.00 | 0.00 | 0.00 | 63 | 1009.4 |
| 20260503004720 | 19 | 278 | 3.2 | 11.3 | 0.00 | 0.00 | 0.00 | 64 | 1009.3 |
| 20260503004620 | 19 | 233 | 3.2 | 12.9 | 0.00 | 0.00 | 0.00 | 64 | 1009.3 |
| 20260503004520 | 19 | 230 | 3.2 | 12.9 | 0.00 | 0.00 | 0.00 | 64 | 1009.3 |
| 20260503004420 | 19 | 301 | 3.2 | 12.9 | 0.00 | 0.00 | 0.00 | 64 | 1009.3 |
| 20260503004320 | 19 | 240 | 3.2 | 12.9 | 0.00 | 0.00 | 0.00 | 64 | 1009.3 |
| 20260503004220 | 19 | 238 | 4.8 | 12.9 | 0.00 | 0.00 | 0.00 | 64 | 1009.3 |
| 20260503004120 | 19 | 271 | 4.8 | 17.7 | 0.00 | 0.00 | 0.00 | 63 | 1009.3 |
| 20260503004015 | 19 | 233 | 4.8 | 17.7 | 0.00 | 0.00 | 0.00 | 64 | 1009.3 |
| 20260503003915 | 19 | 224 | 4.8 | 17.7 | 0.00 | 0.00 | 0.00 | 64 | 1009.3 |
| 20260503003824 | 19 | 245 | 4.8 | 17.7 | 0.00 | 0.00 | 0.00 | 64 | 1009.3 |
| 20260503003812 | 19 | 239 | 4.8 | 17.7 | 0.00 | 0.00 | 0.00 | 64 | 1009.3 |
| 20260503003712 | 19 | 267 | 4.8 | 17.7 | 0.00 | 0.00 | 0.00 | 63 | 1009.4 |
| 20260503003612 | 19 | 240 | 4.8 | 17.7 | 0.00 | 0.00 | 0.00 | 64 | 1009.4 |
| 20260503003508 | 19 | 273 | 4.8 | 17.7 | 0.00 | 0.00 | 0.00 | 64 | 1009.3 |
| 20260503003406 | 19 | 248 | 4.8 | 17.7 | 0.00 | 0.00 | 0.00 | 64 | 1009.4 |
| 20260503003324 | 19 | 256 | 6.4 | 17.7 | 0.00 | 0.00 | 0.00 | 63 | 1009.4 |
| 20260503003304 | 19 | 252 | 6.4 | 19.3 | 0.00 | 0.00 | 0.00 | 63 | 1009.4 |
| 20260503003204 | 19 | 242 | 6.4 | 19.3 | 0.00 | 0.00 | 0.00 | 63 | 1009.4 |
| 20260503003104 | 19 | 260 | 6.4 | 19.3 | 0.00 | 0.00 | 0.00 | 63 | 1009.4 |
| 20260503003049 | 20 | 245 | 4.8 | 19.3 | 0.00 | 0.00 | 0.00 | 62 | 1009.4 |
| 20260503003000 | 19 | 266 | 6.4 | 19.3 | 0.00 | 0.00 | 0.00 | 62 | 1009.4 |
| 20260503002937 | 20 | 264 | 4.8 | 19.3 | 0.00 | 0.00 | 0.00 | 63 | 1009.4 |
| 20260503002800 | 20 | 245 | 4.8 | 19.3 | 0.00 | 0.00 | 0.00 | 62 | 1009.4 |
| 20260503002700 | 20 | 236 | 4.8 | 19.3 | 0.00 | 0.00 | 0.00 | 62 | 1009.4 |
| 20260503002600 | 20 | 257 | 4.8 | 19.3 | 0.00 | 0.00 | 0.00 | 62 | 1009.4 |
| 20260503002501 | 20 | 263 | 4.8 | 19.3 | 0.00 | 0.00 | 0.00 | 62 | 1009.4 |
| 20260503002400 | 20 | 229 | 4.8 | 19.3 | 0.00 | 0.00 | 0.00 | 62 | 1009.4 |
| 20260503002324 | 20 | 204 | 4.8 | 19.3 | 0.00 | 0.00 | 0.00 | 62 | 1009.4 |
| 20260503002300 | 20 | 214 | 4.8 | 14.5 | 0.00 | 0.00 | 0.00 | 62 | 1009.4 |
| 20260503002201 | 20 | 222 | 4.8 | 17.7 | 0.00 | 0.00 | 0.00 | 62 | 1009.4 |
| 20260503002100 | 20 | 256 | 4.8 | 17.7 | 0.00 | 0.00 | 0.00 | 62 | 1009.4 |
| 20260503002000 | 20 | 259 | 4.8 | 17.7 | 0.00 | 0.00 | 0.00 | 62 | 1009.4 |
| 20260503001900 | 20 | 240 | 4.8 | 17.7 | 0.00 | 0.00 | 0.00 | 63 | 1009.3 |
| 20260503001824 | 20 | 228 | 4.8 | 17.7 | 0.00 | 0.00 | 0.00 | 63 | 1009.3 |
| 20260503001800 | 20 | 277 | 4.8 | 17.7 | 0.00 | 0.00 | 0.00 | 63 | 1009.3 |
| 20260503001700 | 20 | 193 | 6.4 | 17.7 | 0.00 | 0.00 | 0.00 | 62 | 1009.3 |
| 20260503001600 | 20 | 193 | 6.4 | 17.7 | 0.00 | 0.00 | 0.00 | 62 | 1009.4 |
| 20260503001500 | 20 | 240 | 6.4 | 17.7 | 0.00 | 0.00 | 0.00 | 62 | 1009.4 |
| 20260503001400 | 20 | 248 | 6.4 | 17.7 | 0.00 | 0.00 | 0.00 | 61 | 1009.4 |
| 20260503001323 | 20 | 243 | 6.4 | 17.7 | 0.00 | 0.00 | 0.00 | 61 | 1009.4 |
| 20260503001258 | 20 | 229 | 6.4 | 17.7 | 0.00 | 0.00 | 0.00 | 61 | 1009.4 |
| 20260503001159 | 20 | 239 | 6.4 | 17.7 | 0.00 | 0.00 | 0.00 | 60 | 1009.4 |
| 20260503001059 | 20 | 235 | 6.4 | 17.7 | 0.00 | 0.00 | 0.00 | 60 | 1009.4 |
| 20260503000959 | 20 | 214 | 6.4 | 17.7 | 0.00 | 0.00 | 0.00 | 60 | 1009.4 |
| 20260503000858 | 20 | 224 | 6.4 | 17.7 | 0.00 | 0.00 | 0.00 | 61 | 1009.4 |
| 20260503000823 | 20 | 214 | 6.4 | 17.7 | 0.00 | 0.00 | 0.00 | 60 | 1009.4 |
| 20260503000758 | 20 | 225 | 6.4 | 17.7 | 0.00 | 0.00 | 0.00 | 60 | 1009.4 |
| 20260503000656 | 20 | 259 | 8.0 | 17.7 | 0.00 | 0.00 | 0.00 | 60 | 1009.4 |
| 20260503000555 | 20 | 191 | 8.0 | 17.7 | 0.00 | 0.00 | 0.00 | 59 | 1009.4 |
| 20260503000543 | 20 | 243 | 8.0 | 17.7 | 0.00 | 0.00 | 0.00 | 59 | 1009.5 |
| 20260503000456 | 20 | 195 | 8.0 | 17.7 | 0.00 | 0.00 | 0.00 | 59 | 1009.4 |
| 20260503000434 | 20 | 160 | 8.0 | 17.7 | 0.00 | 0.00 | 0.00 | 59 | 1009.4 |
| 20260503000256 | 20 | 212 | 8.0 | 17.7 | 0.00 | 0.00 | 0.00 | 59 | 1009.5 |
| 20260503000156 | 20 | 204 | 8.0 | 17.7 | 0.00 | 0.00 | 0.00 | 59 | 1009.4 |
| 20260503000056 | 20 | 243 | 6.4 | 17.7 | 0.00 | 0.00 | 0.00 | 59 | 1009.5 |
| 20260502235955 | 20 | 166 | 6.4 | 17.7 | 0.00 | 0.00 | 0.00 | 60 | 1009.5 |
| 20260502235856 | 20 | 219 | 6.4 | 17.7 | 0.00 | 0.00 | 0.00 | 60 | 1009.5 |
| 20260502235825 | 20 | 201 | 4.8 | 17.7 | 0.00 | 0.00 | 0.00 | 60 | 1009.5 |
| 20260502235756 | 20 | 253 | 4.8 | 17.7 | 0.00 | 0.00 | 0.00 | 60 | 1009.5 |
| 20260502235656 | 20 | 231 | 4.8 | 17.7 | 0.00 | 0.00 | 0.00 | 60 | 1009.5 |
| 20260502235550 | 20 | 224 | 4.8 | 16.1 | 0.00 | 0.00 | 0.00 | 61 | 1009.5 |
| 20260502235451 | 20 | 249 | 3.2 | 11.3 | 0.00 | 0.00 | 0.00 | 61 | 1009.6 |
| 20260502235350 | 20 | 203 | 3.2 | 12.9 | 0.00 | 0.00 | 0.00 | 60 | 1009.5 |
| 20260502235320 | 20 | 224 | 3.2 | 12.9 | 0.00 | 0.00 | 0.00 | 61 | 1009.6 |
| 20260502235250 | 20 | 267 | 3.2 | 16.1 | 0.00 | 0.00 | 0.00 | 61 | 1009.6 |
| 20260502235150 | 20 | 231 | 4.8 | 16.1 | 0.00 | 0.00 | 0.00 | 61 | 1009.6 |
| 20260502235048 | 20 | 226 | 4.8 | 16.1 | 0.00 | 0.00 | 0.00 | 62 | 1009.6 |
| 20260502234948 | 20 | 242 | 6.4 | 16.1 | 0.00 | 0.00 | 0.00 | 62 | 1009.6 |
| 20260502234848 | 20 | 210 | 6.4 | 17.7 | 0.00 | 0.00 | 0.00 | 62 | 1009.6 |
| 20260502234821 | 20 | 236 | 6.4 | 17.7 | 0.00 | 0.00 | 0.00 | 62 | 1009.7 |
| 20260502234748 | 20 | 210 | 6.4 | 17.7 | 0.00 | 0.00 | 0.00 | 62 | 1009.7 |
| 20260502234648 | 20 | 203 | 6.4 | 17.7 | 0.00 | 0.00 | 0.00 | 62 | 1009.7 |
| 20260502234549 | 20 | 245 | 8.0 | 17.7 | 0.00 | 0.00 | 0.00 | 62 | 1009.7 |
| 20260502234448 | 20 | 238 | 8.0 | 17.7 | 0.00 | 0.00 | 0.00 | 62 | 1009.7 |
| 20260502234348 | 20 | 266 | 8.0 | 17.7 | 0.00 | 0.00 | 0.00 | 61 | 1009.7 |
| 20260502234320 | 20 | 228 | 8.0 | 17.7 | 0.00 | 0.00 | 0.00 | 61 | 1009.7 |
| 20260502234246 | 20 | 207 | 8.0 | 17.7 | 0.00 | 0.00 | 0.00 | 61 | 1009.7 |
| 20260502234146 | 20 | 235 | 6.4 | 17.7 | 0.00 | 0.00 | 0.00 | 60 | 1009.7 |
| 20260502234046 | 20 | 271 | 6.4 | 17.7 | 0.00 | 0.00 | 0.00 | 61 | 1009.7 |
| 20260502233946 | 20 | 221 | 4.8 | 17.7 | 0.00 | 0.00 | 0.00 | 62 | 1009.7 |
| 20260502233842 | 20 | 218 | 4.8 | 17.7 | 0.00 | 0.00 | 0.00 | 62 | 1009.7 |
| 20260502233821 | 20 | 255 | 4.8 | 17.7 | 0.00 | 0.00 | 0.00 | 62 | 1009.7 |
| 20260502233742 | 20 | 221 | 4.8 | 17.7 | 0.00 | 0.00 | 0.00 | 62 | 1009.7 |
| 20260502233642 | 20 | 212 | 4.8 | 17.7 | 0.00 | 0.00 | 0.00 | 61 | 1009.7 |
| 20260502233542 | 20 | 243 | 3.2 | 12.9 | 0.00 | 0.00 | 0.00 | 62 | 1009.8 |
| 20260502233442 | 20 | 215 | 3.2 | 12.9 | 0.00 | 0.00 | 0.00 | 63 | 1009.8 |
| 20260502233342 | 20 | 238 | 3.2 | 12.9 | 0.00 | 0.00 | 0.00 | 63 | 1009.8 |
| 20260502233319 | 20 | 292 | 4.8 | 12.9 | 0.00 | 0.00 | 0.00 | 63 | 1009.8 |
| 20260502233243 | 20 | 240 | 4.8 | 14.5 | 0.00 | 0.00 | 0.00 | 62 | 1009.8 |
| 20260502233142 | 20 | 250 | 4.8 | 14.5 | 0.00 | 0.00 | 0.00 | 62 | 1009.8 |
| 20260502233043 | 20 | 243 | 4.8 | 14.5 | 0.00 | 0.00 | 0.00 | 62 | 1009.8 |
| 20260502232942 | 20 | 229 | 6.4 | 14.5 | 0.00 | 0.00 | 0.00 | 62 | 1009.8 |
| 20260502232842 | 20 | 235 | 6.4 | 14.5 | 0.00 | 0.00 | 0.00 | 63 | 1009.8 |
| 20260502232818 | 20 | 257 | 6.4 | 14.5 | 0.00 | 0.00 | 0.00 | 63 | 1009.8 |
| 20260502232742 | 20 | 225 | 6.4 | 14.5 | 0.00 | 0.00 | 0.00 | 63 | 1009.7 |
| 20260502232642 | 20 | 256 | 6.4 | 14.5 | 0.00 | 0.00 | 0.00 | 63 | 1009.8 |
| 20260502232542 | 20 | 248 | 6.4 | 14.5 | 0.00 | 0.00 | 0.00 | 62 | 1009.7 |
| 20260502232442 | 20 | 238 | 6.4 | 14.5 | 0.00 | 0.00 | 0.00 | 62 | 1009.8 |
| 20260502232342 | 20 | 245 | 6.4 | 14.5 | 0.00 | 0.00 | 0.00 | 62 | 1009.7 |
| 20260502232316 | 20 | 232 | 6.4 | 14.5 | 0.00 | 0.00 | 0.00 | 61 | 1009.7 |
| 20260502232242 | 20 | 250 | 6.4 | 14.5 | 0.00 | 0.00 | 0.00 | 61 | 1009.8 |
| 20260502232142 | 20 | 263 | 6.4 | 14.5 | 0.00 | 0.00 | 0.00 | 62 | 1009.8 |
| 20260502232042 | 20 | 245 | 6.4 | 14.5 | 0.00 | 0.00 | 0.00 | 61 | 1009.8 |
| 20260502231942 | 20 | 210 | 4.8 | 14.5 | 0.00 | 0.00 | 0.00 | 61 | 1009.8 |
| 20260502231842 | 21 | 283 | 4.8 | 14.5 | 0.00 | 0.00 | 0.00 | 62 | 1009.8 |
| 20260502231816 | 21 | 245 | 4.8 | 14.5 | 0.00 | 0.00 | 0.00 | 61 | 1009.8 |
| 20260502231742 | 21 | 290 | 4.8 | 14.5 | 0.00 | 0.00 | 0.00 | 61 | 1009.8 |
| 20260502231643 | 21 | 246 | 4.8 | 14.5 | 0.00 | 0.00 | 0.00 | 62 | 1009.8 |
| 20260502231542 | 21 | 217 | 4.8 | 14.5 | 0.00 | 0.00 | 0.00 | 62 | 1009.8 |
| 20260502231442 | 21 | 241 | 6.4 | 14.5 | 0.00 | 0.00 | 0.00 | 61 | 1009.9 |
| 20260502231342 | 21 | 221 | 6.4 | 14.5 | 0.00 | 0.00 | 0.00 | 61 | 1009.8 |
| 20260502231316 | 21 | 224 | 6.4 | 14.5 | 0.00 | 0.00 | 0.00 | 61 | 1009.8 |
| 20260502231242 | 21 | 212 | 4.8 | 14.5 | 0.00 | 0.00 | 0.00 | 61 | 1009.9 |
| 20260502231142 | 21 | 232 | 4.8 | 14.5 | 0.00 | 0.00 | 0.00 | 61 | 1009.9 |
| 20260502231043 | 21 | 273 | 6.4 | 14.5 | 0.00 | 0.00 | 0.00 | 61 | 1009.9 |
| 20260502230941 | 21 | 221 | 6.4 | 14.5 | 0.00 | 0.00 | 0.00 | 61 | 1009.9 |
| 20260502230842 | 21 | 238 | 4.8 | 14.5 | 0.00 | 0.00 | 0.00 | 62 | 1009.9 |
| 20260502230815 | 21 | 271 | 4.8 | 14.5 | 0.00 | 0.00 | 0.00 | 62 | 1009.9 |
| 20260502230742 | 21 | 260 | 4.8 | 14.5 | 0.00 | 0.00 | 0.00 | 61 | 1009.9 |
| 20260502230642 | 21 | 214 | 4.8 | 14.5 | 0.00 | 0.00 | 0.00 | 61 | 1010.0 |
| 20260502230542 | 21 | 210 | 4.8 | 14.5 | 0.00 | 0.00 | 0.00 | 60 | 1010.0 |
| 20260502230442 | 21 | 217 | 4.8 | 14.5 | 0.00 | 0.00 | 0.00 | 61 | 1010.0 |
| 20260502230342 | 21 | 260 | 4.8 | 14.5 | 0.00 | 0.00 | 0.00 | 61 | 1010.1 |
| 20260502230315 | 21 | 228 | 4.8 | 14.5 | 0.00 | 0.00 | 0.00 | 61 | 1010.1 |
| 20260502230242 | 21 | 240 | 4.8 | 14.5 | 0.00 | 0.00 | 0.00 | 61 | 1010.1 |
| 20260502230142 | 21 | 242 | 4.8 | 14.5 | 0.00 | 0.00 | 0.00 | 60 | 1010.1 |
| 20260502230042 | 21 | 257 | 4.8 | 14.5 | 0.00 | 0.00 | 0.00 | 61 | 1010.1 |
| 20260502225942 | 21 | 250 | 4.8 | 14.5 | 0.00 | 0.00 | 0.00 | 62 | 1010.1 |
| 20260502225842 | 21 | 252 | 4.8 | 14.5 | 0.00 | 0.00 | 0.00 | 62 | 1010.1 |
| 20260502225813 | 21 | 181 | 4.8 | 14.5 | 0.00 | 0.00 | 0.00 | 62 | 1010.1 |
| 20260502225742 | 21 | 302 | 4.8 | 14.5 | 0.00 | 0.00 | 0.00 | 62 | 1010.1 |
| 20260502225642 | 21 | 267 | 4.8 | 14.5 | 0.00 | 0.00 | 0.00 | 63 | 1010.2 |
| 20260502225538 | 21 | 245 | 6.4 | 14.5 | 0.00 | 0.00 | 0.00 | 62 | 1010.2 |
| 20260502225438 | 21 | 282 | 6.4 | 19.3 | 0.00 | 0.00 | 0.00 | 62 | 1010.1 |
| 20260502225339 | 21 | 239 | 6.4 | 19.3 | 0.00 | 0.00 | 0.00 | 62 | 1010.2 |
| 20260502225315 | 21 | 256 | 6.4 | 19.3 | 0.00 | 0.00 | 0.00 | 62 | 1010.2 |
| 20260502225236 | 21 | 217 | 4.8 | 19.3 | 0.00 | 0.00 | 0.00 | 62 | 1010.2 |
| 20260502225136 | 21 | 256 | 4.8 | 19.3 | 0.00 | 0.00 | 0.00 | 62 | 1010.2 |
| 20260502225036 | 21 | 295 | 6.4 | 19.3 | 0.00 | 0.00 | 0.00 | 62 | 1010.2 |
| 20260502224936 | 21 | 269 | 6.4 | 19.3 | 0.00 | 0.00 | 0.00 | 61 | 1010.1 |
| 20260502224836 | 21 | 245 | 6.4 | 19.3 | 0.00 | 0.00 | 0.00 | 61 | 1010.2 |
| 20260502224814 | 21 | 239 | 6.4 | 19.3 | 0.00 | 0.00 | 0.00 | 61 | 1010.2 |
| 20260502224736 | 21 | 238 | 6.4 | 19.3 | 0.00 | 0.00 | 0.00 | 61 | 1010.2 |
| 20260502224636 | 21 | 297 | 6.4 | 19.3 | 0.00 | 0.00 | 0.00 | 61 | 1010.2 |
| 20260502224545 | 21 | 295 | 4.8 | 19.3 | 0.00 | 0.00 | 0.00 | 60 | 1010.2 |
| 20260502224536 | 21 | 239 | 6.4 | 19.3 | 0.00 | 0.00 | 0.00 | 60 | 1010.2 |
| 20260502224436 | 21 | 262 | 4.8 | 19.3 | 0.00 | 0.00 | 0.00 | 60 | 1010.2 |
| 20260502224427 | 21 | 236 | 4.8 | 19.3 | 0.00 | 0.00 | 0.00 | 60 | 1010.2 |
| 20260502224236 | 21 | 259 | 4.8 | 19.3 | 0.00 | 0.00 | 0.00 | 60 | 1010.3 |
| 20260502224137 | 21 | 259 | 4.8 | 19.3 | 0.00 | 0.00 | 0.00 | 59 | 1010.3 |
| 20260502224036 | 21 | 250 | 4.8 | 19.3 | 0.00 | 0.00 | 0.00 | 59 | 1010.3 |
| 20260502223936 | 21 | 225 | 3.2 | 14.5 | 0.00 | 0.00 | 0.00 | 59 | 1010.3 |
| 20260502223836 | 21 | 266 | 3.2 | 14.5 | 0.00 | 0.00 | 0.00 | 59 | 1010.3 |
| 20260502223815 | 21 | 241 | 3.2 | 14.5 | 0.00 | 0.00 | 0.00 | 59 | 1010.3 |
| 20260502223736 | 21 | 221 | 3.2 | 14.5 | 0.00 | 0.00 | 0.00 | 59 | 1010.4 |
| 20260502223636 | 21 | 245 | 3.2 | 14.5 | 0.00 | 0.00 | 0.00 | 59 | 1010.4 |
| 20260502223536 | 22 | 288 | 3.2 | 14.5 | 0.00 | 0.00 | 0.00 | 58 | 1010.4 |
| 20260502223436 | 22 | 282 | 3.2 | 11.3 | 0.00 | 0.00 | 0.00 | 58 | 1010.4 |
| 20260502223336 | 21 | 283 | 4.8 | 12.9 | 0.00 | 0.00 | 0.00 | 58 | 1010.4 |
| 20260502223316 | 22 | 283 | 4.8 | 17.7 | 0.00 | 0.00 | 0.00 | 58 | 1010.4 |
| 20260502223236 | 22 | 283 | 4.8 | 17.7 | 0.00 | 0.00 | 0.00 | 58 | 1010.4 |
| 20260502223136 | 22 | 256 | 4.8 | 17.7 | 0.00 | 0.00 | 0.00 | 58 | 1010.4 |
| 20260502223037 | 21 | 250 | 4.8 | 17.7 | 0.00 | 0.00 | 0.00 | 58 | 1010.4 |
| 20260502222936 | 21 | 212 | 4.8 | 17.7 | 0.00 | 0.00 | 0.00 | 59 | 1010.5 |
| 20260502222836 | 21 | 253 | 4.8 | 17.7 | 0.00 | 0.00 | 0.00 | 60 | 1010.5 |
| 20260502222813 | 21 | 221 | 4.8 | 17.7 | 0.00 | 0.00 | 0.00 | 60 | 1010.5 |
| 20260502222736 | 21 | 231 | 4.8 | 17.7 | 0.00 | 0.00 | 0.00 | 60 | 1010.5 |
| 20260502222636 | 21 | 316 | 6.4 | 17.7 | 0.00 | 0.00 | 0.00 | 59 | 1010.5 |
| 20260502222537 | 21 | 302 | 6.4 | 17.7 | 0.00 | 0.00 | 0.00 | 59 | 1010.5 |
| 20260502222432 | 21 | 239 | 6.4 | 17.7 | 0.00 | 0.00 | 0.00 | 57 | 1010.5 |
| 20260502222332 | 21 | 243 | 6.4 | 17.7 | 0.00 | 0.00 | 0.00 | 58 | 1010.5 |
| 20260502222313 | 21 | 239 | 6.4 | 17.7 | 0.00 | 0.00 | 0.00 | 58 | 1010.5 |
| 20260502222233 | 21 | 243 | 6.4 | 17.7 | 0.00 | 0.00 | 0.00 | 57 | 1010.5 |
| 20260502222132 | 22 | 221 | 6.4 | 17.7 | 0.00 | 0.00 | 0.00 | 57 | 1010.6 |
| 20260502222032 | 22 | 263 | 6.4 | 17.7 | 0.00 | 0.00 | 0.00 | 59 | 1010.5 |
| 20260502221932 | 22 | 267 | 6.4 | 17.7 | 0.00 | 0.00 | 0.00 | 58 | 1010.6 |
| 20260502221833 | 21 | 239 | 6.4 | 17.7 | 0.00 | 0.00 | 0.00 | 58 | 1010.7 |
| 20260502221815 | 21 | 287 | 6.4 | 17.7 | 0.00 | 0.00 | 0.00 | 58 | 1010.7 |
| 20260502221801 | 22 | 248 | 4.8 | 14.5 | 0.00 | 0.00 | 0.00 | 57 | 1010.7 |
| 20260502221732 | 21 | 224 | 6.4 | 17.7 | 0.00 | 0.00 | 0.00 | 59 | 1010.7 |
| 20260502221648 | 21 | 260 | 6.4 | 17.7 | 0.00 | 0.00 | 0.00 | 59 | 1010.7 |
| 20260502221532 | 21 | 221 | 6.4 | 17.7 | 0.00 | 0.00 | 0.00 | 59 | 1010.7 |
| 20260502221434 | 21 | 259 | 6.4 | 17.7 | 0.00 | 0.00 | 0.00 | 59 | 1010.7 |
| 20260502221426 | 21 | 215 | 4.8 | 17.7 | 0.00 | 0.00 | 0.00 | 57 | 1010.7 |
| 20260502221233 | 22 | 231 | 4.8 | 14.5 | 0.00 | 0.00 | 0.00 | 58 | 1010.7 |
| 20260502221132 | 22 | 242 | 4.8 | 14.5 | 0.00 | 0.00 | 0.00 | 59 | 1010.7 |
| 20260502221032 | 22 | 242 | 3.2 | 14.5 | 0.00 | 0.00 | 0.00 | 58 | 1010.7 |
| 20260502220932 | 22 | 260 | 3.2 | 14.5 | 0.00 | 0.00 | 0.00 | 59 | 1010.7 |
| 20260502220832 | 22 | 222 | 3.2 | 12.9 | 0.00 | 0.00 | 0.00 | 59 | 1010.7 |
| 20260502220816 | 22 | 239 | 3.2 | 12.9 | 0.00 | 0.00 | 0.00 | 60 | 1010.7 |
| 20260502220732 | 22 | 203 | 4.8 | 12.9 | 0.00 | 0.00 | 0.00 | 60 | 1010.8 |
| 20260502220632 | 22 | 165 | 4.8 | 17.7 | 0.00 | 0.00 | 0.00 | 61 | 1010.8 |
| 20260502220528 | 22 | 238 | 4.8 | 17.7 | 0.00 | 0.00 | 0.00 | 61 | 1010.8 |
| 20260502220428 | 21 | 248 | 4.8 | 17.7 | 0.00 | 0.00 | 0.00 | 61 | 1010.8 |
| 20260502220328 | 21 | 256 | 4.8 | 17.7 | 0.00 | 0.00 | 0.00 | 62 | 1010.8 |
| 20260502220308 | 21 | 252 | 4.8 | 17.7 | 0.00 | 0.00 | 0.00 | 61 | 1010.8 |
| 20260502220228 | 21 | 269 | 4.8 | 17.7 | 0.00 | 0.00 | 0.00 | 62 | 1010.8 |
| 20260502220128 | 21 | 233 | 4.8 | 17.7 | 0.00 | 0.00 | 0.00 | 61 | 1010.8 |
| 20260502220026 | 21 | 235 | 6.4 | 17.7 | 0.00 | 0.00 | 0.00 | 61 | 1010.8 |
| 20260502215926 | 21 | 304 | 6.4 | 17.7 | 0.00 | 0.00 | 0.00 | 61 | 1010.9 |
| 20260502215843 | 21 | 210 | 6.4 | 17.7 | 0.00 | 0.00 | 0.00 | 61 | 1010.9 |
| 20260502215811 | 21 | 125 | 6.4 | 17.7 | 0.00 | 0.00 | 0.00 | 60 | 1010.9 |
| 20260502215728 | 21 | 208 | 4.8 | 17.7 | 0.00 | 0.00 | 0.00 | 60 | 1010.9 |
| 20260502215626 | 21 | 245 | 4.8 | 14.5 | 0.00 | 0.00 | 0.00 | 60 | 1010.9 |
| 20260502215526 | 21 | 252 | 3.2 | 14.5 | 0.00 | 0.00 | 0.00 | 60 | 1010.9 |
| 20260502215426 | 21 | 229 | 3.2 | 14.5 | 0.00 | 0.00 | 0.00 | 61 | 1011.0 |
| 20260502215326 | 21 | 288 | 4.8 | 14.5 | 0.00 | 0.00 | 0.00 | 61 | 1010.9 |
| 20260502215307 | 21 | 298 | 4.8 | 14.5 | 0.00 | 0.00 | 0.00 | 61 | 1010.9 |
| 20260502215229 | 21 | 298 | 4.8 | 16.1 | 0.00 | 0.00 | 0.00 | 63 | 1011.0 |
| 20260502215126 | 21 | 298 | 4.8 | 16.1 | 0.00 | 0.00 | 0.00 | 62 | 1011.0 |
| 20260502215026 | 21 | 242 | 4.8 | 16.1 | 0.00 | 0.00 | 0.00 | 61 | 1011.0 |
| 20260502214926 | 21 | 242 | 4.8 | 16.1 | 0.00 | 0.00 | 0.00 | 61 | 1011.0 |
| 20260502214827 | 21 | 239 | 4.8 | 16.1 | 0.00 | 0.00 | 0.00 | 61 | 1011.0 |
| 20260502214807 | 21 | 238 | 4.8 | 16.1 | 0.00 | 0.00 | 0.00 | 61 | 1011.0 |
| 20260502214725 | 21 | 233 | 6.4 | 16.1 | 0.00 | 0.00 | 0.00 | 61 | 1011.1 |
| 20260502214624 | 21 | 233 | 6.4 | 16.1 | 0.00 | 0.00 | 0.00 | 61 | 1011.1 |
| 20260502214524 | 21 | 273 | 8.0 | 16.1 | 0.00 | 0.00 | 0.00 | 61 | 1011.1 |
| 20260502214424 | 21 | 228 | 8.0 | 19.3 | 0.00 | 0.00 | 0.00 | 61 | 1011.1 |
| 20260502214324 | 21 | 246 | 8.0 | 19.3 | 0.00 | 0.00 | 0.00 | 61 | 1011.1 |
| 20260502214305 | 21 | 243 | 8.0 | 19.3 | 0.00 | 0.00 | 0.00 | 61 | 1011.1 |
| 20260502214224 | 21 | 256 | 6.4 | 19.3 | 0.00 | 0.00 | 0.00 | 63 | 1011.1 |
| 20260502214124 | 21 | 235 | 6.4 | 19.3 | 0.00 | 0.00 | 0.00 | 62 | 1011.1 |
| 20260502214024 | 21 | 218 | 6.4 | 19.3 | 0.00 | 0.00 | 0.00 | 62 | 1011.2 |
| 20260502213924 | 21 | 225 | 6.4 | 19.3 | 0.00 | 0.00 | 0.00 | 61 | 1011.2 |
| 20260502213824 | 21 | 222 | 6.4 | 19.3 | 0.00 | 0.00 | 0.00 | 61 | 1011.2 |
| 20260502213806 | 21 | 241 | 6.4 | 19.3 | 0.00 | 0.00 | 0.00 | 61 | 1011.2 |
| 20260502213727 | 21 | 273 | 6.4 | 19.3 | 0.00 | 0.00 | 0.00 | 60 | 1011.2 |
| 20260502213624 | 21 | 210 | 4.8 | 19.3 | 0.00 | 0.00 | 0.00 | 60 | 1011.2 |
| 20260502213525 | 21 | 282 | 4.8 | 19.3 | 0.00 | 0.00 | 0.00 | 60 | 1011.2 |
| 20260502213419 | 21 | 233 | 3.2 | 14.5 | 0.00 | 0.00 | 0.00 | 61 | 1011.2 |
| 20260502213306 | 21 | 257 | 3.2 | 14.5 | 0.00 | 0.00 | 0.00 | 62 | 1011.2 |
| 20260502213220 | 21 | 253 | 3.2 | 14.5 | 0.00 | 0.00 | 0.00 | 62 | 1011.2 |
| 20260502213121 | 21 | 223 | 4.8 | 14.5 | 0.00 | 0.00 | 0.00 | 61 | 1011.2 |
| 20260502213028 | 21 | 250 | 3.2 | 9.7 | 0.00 | 0.00 | 0.00 | 62 | 1011.3 |
| 20260502213020 | 21 | 229 | 3.2 | 14.5 | 0.00 | 0.00 | 0.00 | 60 | 1011.3 |
| 20260502212925 | 21 | 240 | 3.2 | 9.7 | 0.00 | 0.00 | 0.00 | 61 | 1011.3 |
| 20260502212916 | 21 | 248 | 3.2 | 9.7 | 0.00 | 0.00 | 0.00 | 62 | 1011.3 |
| 20260502212722 | 21 | 245 | 4.8 | 11.3 | 0.00 | 0.00 | 0.00 | 63 | 1011.3 |
| 20260502212620 | 21 | 194 | 4.8 | 19.3 | 0.00 | 0.00 | 0.00 | 63 | 1011.2 |
| 20260502212528 | 21 | 253 | 6.4 | 19.3 | 0.00 | 0.00 | 0.00 | 64 | 1011.3 |
| 20260502212520 | 21 | 307 | 4.8 | 19.3 | 0.00 | 0.00 | 0.00 | 64 | 1011.3 |
| 20260502212423 | 21 | 259 | 4.8 | 19.3 | 0.00 | 0.00 | 0.00 | 63 | 1011.3 |
| 20260502212415 | 21 | 252 | 6.4 | 19.3 | 0.00 | 0.00 | 0.00 | 64 | 1011.3 |
| 20260502212220 | 21 | 266 | 6.4 | 19.3 | 0.00 | 0.00 | 0.00 | 64 | 1011.3 |
| 20260502212120 | 21 | 259 | 6.4 | 19.3 | 0.00 | 0.00 | 0.00 | 63 | 1011.3 |
| 20260502212020 | 21 | 228 | 6.4 | 19.3 | 0.00 | 0.00 | 0.00 | 63 | 1011.3 |
| 20260502211920 | 21 | 239 | 8.0 | 19.3 | 0.00 | 0.00 | 0.00 | 63 | 1011.3 |
| 20260502211819 | 21 | 245 | 8.0 | 19.3 | 0.00 | 0.00 | 0.00 | 63 | 1011.3 |
| 20260502211804 | 21 | 210 | 8.0 | 19.3 | 0.00 | 0.00 | 0.00 | 63 | 1011.3 |
| 20260502211745 | 20 | 193 | 8.0 | 24.1 | 0.00 | 0.00 | 0.00 | 65 | 1011.4 |
| 20260502211720 | 21 | 264 | 9.7 | 24.1 | 0.00 | 0.00 | 0.00 | 63 | 1011.4 |
| 20260502211638 | 21 | 229 | 9.7 | 24.1 | 0.00 | 0.00 | 0.00 | 63 | 1011.4 |
| 20260502211516 | 21 | 187 | 9.7 | 24.1 | 0.00 | 0.00 | 0.00 | 64 | 1011.4 |
| 20260502211423 | 21 | 205 | 8.0 | 24.1 | 0.00 | 0.00 | 0.00 | 64 | 1011.4 |
| 20260502211414 | 20 | 218 | 8.0 | 24.1 | 0.00 | 0.00 | 0.00 | 65 | 1011.4 |
| 20260502211216 | 20 | 240 | 8.0 | 24.1 | 0.00 | 0.00 | 0.00 | 65 | 1011.4 |
| 20260502211114 | 20 | 257 | 8.0 | 24.1 | 0.00 | 0.00 | 0.00 | 64 | 1011.4 |
| 20260502211013 | 21 | 243 | 8.0 | 24.1 | 0.00 | 0.00 | 0.00 | 62 | 1011.4 |
| 20260502210914 | 21 | 215 | 6.4 | 24.1 | 0.00 | 0.00 | 0.00 | 62 | 1011.5 |
| 20260502210816 | 21 | 183 | 6.4 | 24.1 | 0.00 | 0.00 | 0.00 | 61 | 1011.5 |
| 20260502210806 | 21 | 225 | 6.4 | 24.1 | 0.00 | 0.00 | 0.00 | 61 | 1011.5 |
| 20260502210715 | 21 | 232 | 4.8 | 19.3 | 0.00 | 0.00 | 0.00 | 62 | 1011.5 |
| 20260502210614 | 21 | 161 | 4.8 | 14.5 | 0.00 | 0.00 | 0.00 | 61 | 1011.5 |
| 20260502210514 | 21 | 171 | 4.8 | 12.9 | 0.00 | 0.00 | 0.00 | 63 | 1011.5 |
| 20260502210415 | 21 | 232 | 6.4 | 12.9 | 0.00 | 0.00 | 0.00 | 64 | 1011.6 |
| 20260502210303 | 21 | 228 | 6.4 | 12.9 | 0.00 | 0.00 | 0.00 | 64 | 1011.5 |
| 20260502210210 | 21 | 226 | 6.4 | 12.9 | 0.00 | 0.00 | 0.00 | 64 | 1011.5 |
| 20260502210110 | 21 | 264 | 6.4 | 12.9 | 0.00 | 0.00 | 0.00 | 64 | 1011.5 |
| 20260502210010 | 21 | 288 | 6.4 | 12.9 | 0.00 | 0.00 | 0.00 | 63 | 1011.6 |
| 20260502205910 | 21 | 225 | 6.4 | 12.9 | 0.00 | 0.00 | 0.00 | 63 | 1011.6 |
| 20260502205814 | 21 | 217 | 4.8 | 12.9 | 0.00 | 0.00 | 0.00 | 63 | 1011.6 |
| 20260502205803 | 21 | 224 | 4.8 | 12.9 | 0.00 | 0.00 | 0.00 | 63 | 1011.6 |
| 20260502205711 | 21 | 217 | 4.8 | 11.3 | 0.00 | 0.00 | 0.00 | 63 | 1011.6 |
| 20260502205610 | 21 | 235 | 4.8 | 11.3 | 0.00 | 0.00 | 0.00 | 63 | 1011.6 |
| 20260502205510 | 21 | 154 | 4.8 | 11.3 | 0.00 | 0.00 | 0.00 | 63 | 1011.6 |
| 20260502205410 | 21 | 143 | 4.8 | 11.3 | 0.00 | 0.00 | 0.00 | 63 | 1011.6 |
| 20260502205305 | 21 | 273 | 4.8 | 11.3 | 0.00 | 0.00 | 0.00 | 64 | 1011.6 |
| 20260502205210 | 21 | 250 | 4.8 | 12.9 | 0.00 | 0.00 | 0.00 | 65 | 1011.6 |
| 20260502205110 | 21 | 224 | 4.8 | 14.5 | 0.00 | 0.00 | 0.00 | 64 | 1011.7 |
| 20260502205033 | 20 | 294 | 6.4 | 14.5 | 0.00 | 0.00 | 0.00 | 67 | 1011.6 |
| 20260502205010 | 21 | 233 | 6.4 | 14.5 | 0.00 | 0.00 | 0.00 | 66 | 1011.7 |
| 20260502204923 | 20 | 226 | 6.4 | 14.5 | 0.00 | 0.00 | 0.00 | 66 | 1011.7 |
| 20260502204915 | 20 | 287 | 6.4 | 14.5 | 0.00 | 0.00 | 0.00 | 67 | 1011.6 |
| 20260502204710 | 20 | 238 | 6.4 | 14.5 | 0.00 | 0.00 | 0.00 | 68 | 1011.7 |
| 20260502204610 | 20 | 235 | 6.4 | 14.5 | 0.00 | 0.00 | 0.00 | 67 | 1011.7 |
| 20260502204510 | 20 | 235 | 8.0 | 16.1 | 0.00 | 0.00 | 0.00 | 66 | 1011.8 |
| 20260502204406 | 20 | 221 | 8.0 | 16.1 | 0.00 | 0.00 | 0.00 | 66 | 1011.7 |
| 20260502204309 | 20 | 163 | 8.0 | 16.1 | 0.00 | 0.00 | 0.00 | 66 | 1011.8 |
| 20260502204206 | 20 | 217 | 6.4 | 16.1 | 0.00 | 0.00 | 0.00 | 66 | 1011.8 |
| 20260502204106 | 20 | 225 | 6.4 | 16.1 | 0.00 | 0.00 | 0.00 | 65 | 1011.8 |
| 20260502204006 | 20 | 245 | 6.4 | 20.9 | 0.00 | 0.00 | 0.00 | 66 | 1011.8 |
| 20260502203906 | 20 | 216 | 6.4 | 20.9 | 0.00 | 0.00 | 0.00 | 66 | 1011.8 |
| 20260502203807 | 20 | 260 | 6.4 | 20.9 | 0.00 | 0.00 | 0.00 | 66 | 1011.8 |
| 20260502203706 | 20 | 228 | 8.0 | 20.9 | 0.00 | 0.00 | 0.00 | 65 | 1011.8 |
| 20260502203607 | 20 | 242 | 8.0 | 20.9 | 0.00 | 0.00 | 0.00 | 64 | 1011.8 |
| 20260502203506 | 20 | 256 | 6.4 | 20.9 | 0.00 | 0.00 | 0.00 | 64 | 1011.9 |
| 20260502203406 | 20 | 253 | 6.4 | 20.9 | 0.00 | 0.00 | 0.00 | 64 | 1011.8 |
| 20260502203307 | 20 | 225 | 6.4 | 20.9 | 0.00 | 0.00 | 0.00 | 66 | 1011.8 |
| 20260502203206 | 20 | 218 | 6.4 | 20.9 | 0.00 | 0.00 | 0.00 | 65 | 1011.8 |
| 20260502203106 | 20 | 214 | 6.4 | 20.9 | 0.00 | 0.00 | 0.00 | 65 | 1011.8 |
| 20260502203006 | 20 | 225 | 6.4 | 17.7 | 0.00 | 0.00 | 0.00 | 65 | 1011.9 |
| 20260502202906 | 20 | 305 | 6.4 | 16.1 | 0.00 | 0.00 | 0.00 | 65 | 1011.8 |
| 20260502202807 | 20 | 187 | 6.4 | 17.7 | 0.00 | 0.00 | 0.00 | 65 | 1011.9 |
| 20260502202706 | 20 | 165 | 6.4 | 20.9 | 0.00 | 0.00 | 0.00 | 64 | 1011.9 |
| 20260502202606 | 20 | 240 | 6.4 | 20.9 | 0.00 | 0.00 | 0.00 | 65 | 1011.9 |
| 20260502202502 | 20 | 186 | 6.4 | 20.9 | 0.00 | 0.00 | 0.00 | 66 | 1011.9 |
| 20260502202402 | 20 | 241 | 8.0 | 20.9 | 0.00 | 0.00 | 0.00 | 66 | 1011.9 |
| 20260502202309 | 20 | 252 | 8.0 | 20.9 | 0.00 | 0.00 | 0.00 | 67 | 1011.9 |
| 20260502202304 | 20 | 233 | 8.0 | 20.9 | 0.00 | 0.00 | 0.00 | 67 | 1011.9 |
| 20260502202202 | 20 | 233 | 8.0 | 20.9 | 0.00 | 0.00 | 0.00 | 66 | 1011.9 |
| 20260502202103 | 20 | 213 | 8.0 | 20.9 | 0.00 | 0.00 | 0.00 | 65 | 1011.9 |
| 20260502202003 | 20 | 211 | 6.4 | 20.9 | 0.00 | 0.00 | 0.00 | 65 | 1011.9 |
| 20260502201902 | 20 | 198 | 6.4 | 20.9 | 0.00 | 0.00 | 0.00 | 64 | 1012.0 |
| 20260502201810 | 20 | 242 | 4.8 | 20.9 | 0.00 | 0.00 | 0.00 | 64 | 1012.0 |
| 20260502201802 | 20 | 238 | 4.8 | 20.9 | 0.00 | 0.00 | 0.00 | 64 | 1012.0 |
| 20260502201702 | 20 | 193 | 4.8 | 16.1 | 0.00 | 0.00 | 0.00 | 65 | 1012.0 |
| 20260502201602 | 20 | 229 | 4.8 | 16.1 | 0.00 | 0.00 | 0.00 | 65 | 1012.0 |
| 20260502201502 | 20 | 250 | 4.8 | 14.5 | 0.00 | 0.00 | 0.00 | 65 | 1011.9 |
| 20260502201403 | 20 | 250 | 4.8 | 14.5 | 0.00 | 0.00 | 0.00 | 64 | 1012.0 |
| 20260502201311 | 21 | 243 | 3.2 | 14.5 | 0.00 | 0.00 | 0.00 | 66 | 1012.0 |
| 20260502201302 | 21 | 229 | 3.2 | 14.5 | 0.00 | 0.00 | 0.00 | 66 | 1012.0 |
| 20260502201202 | 20 | 219 | 3.2 | 12.9 | 0.00 | 0.00 | 0.00 | 66 | 1012.0 |
| 20260502201102 | 20 | 310 | 3.2 | 12.9 | 0.00 | 0.00 | 0.00 | 67 | 1012.0 |
| 20260502201002 | 20 | 312 | 3.2 | 12.9 | 0.00 | 0.00 | 0.00 | 67 | 1012.0 |
| 20260502200902 | 20 | 238 | 3.2 | 12.9 | 0.00 | 0.00 | 0.00 | 67 | 1012.0 |
| 20260502200809 | 20 | 285 | 4.8 | 14.5 | 0.00 | 0.00 | 0.00 | 66 | 1012.0 |
| 20260502200802 | 20 | 285 | 4.8 | 14.5 | 0.00 | 0.00 | 0.00 | 67 | 1012.0 |
| 20260502200702 | 20 | 311 | 4.8 | 14.5 | 0.00 | 0.00 | 0.00 | 66 | 1012.0 |
| 20260502200558 | 20 | 271 | 4.8 | 14.5 | 0.00 | 0.00 | 0.00 | 66 | 1012.1 |
| 20260502200508 | 20 | 253 | 4.8 | 17.7 | 0.00 | 0.00 | 0.00 | 68 | 1012.1 |
| 20260502200458 | 20 | 225 | 4.8 | 17.7 | 0.00 | 0.00 | 0.00 | 67 | 1012.0 |
| 20260502200411 | 20 | 205 | 4.8 | 17.7 | 0.00 | 0.00 | 0.00 | 67 | 1012.1 |
| 20260502200401 | 20 | 235 | 4.8 | 17.7 | 0.00 | 0.00 | 0.00 | 67 | 1012.0 |
| 20260502200354 | 20 | 256 | 4.8 | 17.7 | 0.00 | 0.00 | 0.00 | 67 | 1012.0 |
| 20260502200158 | 20 | 248 | 4.8 | 17.7 | 0.00 | 0.00 | 0.00 | 68 | 1012.0 |
| 20260502200135 | 20 | 239 | 4.8 | 17.7 | 0.00 | 0.00 | 0.00 | 67 | 1012.0 |
| 20260502200000 | 20 | 300 | 4.8 | 17.7 | 0.00 | 0.00 | 0.00 | 68 | 1012.1 |
| 20260502195913 | 20 | 236 | 4.8 | 17.7 | 0.00 | 0.00 | 0.00 | 68 | 1012.1 |
| 20260502195756 | 20 | 186 | 4.8 | 17.7 | 0.00 | 0.00 | 0.00 | 68 | 1012.1 |
| 20260502195656 | 19 | 233 | 4.8 | 17.7 | 0.00 | 0.00 | 0.00 | 68 | 1012.1 |
| 20260502195557 | 19 | 254 | 4.8 | 17.7 | 0.00 | 0.00 | 0.00 | 70 | 1012.1 |
| 20260502195456 | 19 | 200 | 4.8 | 14.5 | 0.00 | 0.00 | 0.00 | 70 | 1012.1 |
| 20260502195352 | 19 | 221 | 4.8 | 14.5 | 0.00 | 0.00 | 0.00 | 70 | 1012.1 |
| 20260502195305 | 19 | 233 | 4.8 | 14.5 | 0.00 | 0.00 | 0.00 | 70 | 1012.2 |
| 20260502195252 | 19 | 186 | 4.8 | 14.5 | 0.00 | 0.00 | 0.00 | 70 | 1012.2 |
| 20260502195152 | 19 | 174 | 4.8 | 16.1 | 0.00 | 0.00 | 0.00 | 71 | 1012.1 |
| 20260502195052 | 18 | 136 | 4.8 | 16.1 | 0.00 | 0.00 | 0.00 | 72 | 1012.2 |
| 20260502194952 | 18 | 256 | 6.4 | 16.1 | 0.00 | 0.00 | 0.00 | 73 | 1012.2 |
| 20260502194852 | 18 | 240 | 6.4 | 16.1 | 0.00 | 0.00 | 0.00 | 72 | 1012.2 |
| 20260502194801 | 18 | 218 | 6.4 | 16.1 | 0.00 | 0.00 | 0.00 | 72 | 1012.2 |
| 20260502194752 | 18 | 219 | 6.4 | 16.1 | 0.00 | 0.00 | 0.00 | 72 | 1012.2 |
| 20260502194652 | 18 | 243 | 6.4 | 16.1 | 0.00 | 0.00 | 0.00 | 72 | 1012.2 |
| 20260502194553 | 18 | 246 | 6.4 | 16.1 | 0.00 | 0.00 | 0.00 | 72 | 1012.2 |
| 20260502194452 | 18 | 239 | 6.4 | 16.1 | 0.00 | 0.00 | 0.00 | 73 | 1012.2 |
| 20260502194352 | 18 | 277 | 6.4 | 16.1 | 0.00 | 0.00 | 0.00 | 73 | 1012.2 |
| 20260502194301 | 18 | 240 | 4.8 | 16.1 | 0.00 | 0.00 | 0.00 | 72 | 1012.2 |
| 20260502194252 | 18 | 225 | 4.8 | 16.1 | 0.00 | 0.00 | 0.00 | 72 | 1012.2 |
| 20260502194152 | 18 | 222 | 4.8 | 12.9 | 0.00 | 0.00 | 0.00 | 73 | 1012.3 |
| 20260502194052 | 18 | 256 | 4.8 | 12.9 | 0.00 | 0.00 | 0.00 | 73 | 1012.2 |
| 20260502193952 | 18 | 273 | 3.2 | 12.9 | 0.00 | 0.00 | 0.00 | 72 | 1012.3 |
| 20260502193852 | 18 | 214 | 3.2 | 12.9 | 0.00 | 0.00 | 0.00 | 72 | 1012.3 |
| 20260502193821 | 18 | 236 | 3.2 | 12.9 | 0.00 | 0.00 | 0.00 | 72 | 1012.3 |
| 20260502193803 | 18 | 242 | 3.2 | 12.9 | 0.00 | 0.00 | 0.00 | 72 | 1012.3 |
| 20260502193652 | 18 | 248 | 3.2 | 12.9 | 0.00 | 0.00 | 0.00 | 73 | 1012.3 |
| 20260502193553 | 18 | 284 | 3.2 | 17.7 | 0.00 | 0.00 | 0.00 | 72 | 1012.2 |
| 20260502193448 | 18 | 239 | 3.2 | 17.7 | 0.00 | 0.00 | 0.00 | 73 | 1012.3 |
| 20260502193348 | 18 | 212 | 3.2 | 17.7 | 0.00 | 0.00 | 0.00 | 73 | 1012.3 |
| 20260502193248 | 18 | 204 | 4.8 | 17.7 | 0.00 | 0.00 | 0.00 | 73 | 1012.3 |
| 20260502193148 | 18 | 235 | 4.8 | 17.7 | 0.00 | 0.00 | 0.00 | 73 | 1012.3 |
| 20260502193048 | 18 | 240 | 4.8 | 17.7 | 0.00 | 0.00 | 0.00 | 73 | 1012.3 |
| 20260502192948 | 18 | 240 | 4.8 | 17.7 | 0.00 | 0.00 | 0.00 | 73 | 1012.3 |
| 20260502192848 | 18 | 246 | 6.4 | 17.7 | 0.00 | 0.00 | 0.00 | 73 | 1012.3 |
| 20260502192802 | 18 | 252 | 6.4 | 17.7 | 0.00 | 0.00 | 0.00 | 72 | 1012.3 |
| 20260502192748 | 18 | 229 | 6.4 | 17.7 | 0.00 | 0.00 | 0.00 | 72 | 1012.3 |
| 20260502192648 | 18 | 214 | 4.8 | 17.7 | 0.00 | 0.00 | 0.00 | 72 | 1012.3 |
| 20260502192548 | 18 | 228 | 3.2 | 14.5 | 0.00 | 0.00 | 0.00 | 73 | 1012.3 |
| 20260502192448 | 18 | 222 | 3.2 | 14.5 | 0.00 | 0.00 | 0.00 | 72 | 1012.3 |
| 20260502192348 | 18 | 243 | 3.2 | 14.5 | 0.00 | 0.00 | 0.00 | 72 | 1012.3 |
| 20260502192305 | 18 | 252 | 3.2 | 14.5 | 0.00 | 0.00 | 0.00 | 72 | 1012.3 |
| 20260502192246 | 18 | 246 | 3.2 | 14.5 | 0.00 | 0.00 | 0.00 | 72 | 1012.4 |
| 20260502192146 | 18 | 212 | 3.2 | 14.5 | 0.00 | 0.00 | 0.00 | 72 | 1012.4 |
| 20260502192046 | 18 | 236 | 3.2 | 12.9 | 0.00 | 0.00 | 0.00 | 73 | 1012.4 |
| 20260502191946 | 18 | 160 | 3.2 | 11.3 | 0.00 | 0.00 | 0.00 | 73 | 1012.3 |
| 20260502191846 | 18 | 239 | 3.2 | 11.3 | 0.00 | 0.00 | 0.00 | 74 | 1012.3 |
| 20260502191802 | 18 | 253 | 3.2 | 11.3 | 0.00 | 0.00 | 0.00 | 76 | 1012.3 |
| 20260502191747 | 17 | 248 | 3.2 | 11.3 | 0.00 | 0.00 | 0.00 | 76 | 1012.3 |
| 20260502191644 | 17 | 158 | 3.2 | 11.3 | 0.00 | 0.00 | 0.00 | 75 | 1012.3 |
| 20260502191544 | 17 | 274 | 4.8 | 12.9 | 0.00 | 0.00 | 0.00 | 75 | 1012.3 |
| 20260502191518 | 17 | 235 | 4.8 | 14.5 | 0.00 | 0.00 | 0.00 | 76 | 1012.4 |
| 20260502191444 | 17 | 238 | 4.8 | 12.9 | 0.00 | 0.00 | 0.00 | 75 | 1012.3 |
| 20260502191412 | 17 | 222 | 4.8 | 12.9 | 0.00 | 0.00 | 0.00 | 76 | 1012.4 |
| 20260502191244 | 17 | 235 | 4.8 | 14.5 | 0.00 | 0.00 | 0.00 | 76 | 1012.4 |
| 20260502191144 | 17 | 242 | 4.8 | 14.5 | 0.00 | 0.00 | 0.00 | 78 | 1012.5 |
| 20260502191044 | 16 | 242 | 6.4 | 16.1 | 0.00 | 0.00 | 0.00 | 77 | 1012.4 |
| 20260502190944 | 16 | 257 | 6.4 | 16.1 | 0.00 | 0.00 | 0.00 | 77 | 1012.4 |
| 20260502190844 | 16 | 253 | 8.0 | 19.3 | 0.00 | 0.00 | 0.00 | 77 | 1012.5 |
| 20260502190801 | 16 | 248 | 8.0 | 19.3 | 0.00 | 0.00 | 0.00 | 77 | 1012.5 |
| 20260502190745 | 16 | 236 | 8.0 | 19.3 | 0.00 | 0.00 | 0.00 | 77 | 1012.5 |
| 20260502190644 | 16 | 256 | 8.0 | 19.3 | 0.00 | 0.00 | 0.00 | 77 | 1012.6 |
| 20260502190544 | 16 | 221 | 6.4 | 19.3 | 0.00 | 0.00 | 0.00 | 78 | 1012.6 |
| 20260502190444 | 16 | 250 | 8.0 | 19.3 | 0.00 | 0.00 | 0.00 | 78 | 1012.6 |
| 20260502190344 | 16 | 215 | 8.0 | 19.3 | 0.00 | 0.00 | 0.00 | 77 | 1012.6 |
| 20260502190301 | 16 | 248 | 6.4 | 19.3 | 0.00 | 0.00 | 0.00 | 78 | 1012.6 |
| 20260502190245 | 16 | 235 | 6.4 | 19.3 | 0.00 | 0.00 | 0.00 | 78 | 1012.6 |
| 20260502190144 | 16 | 212 | 6.4 | 19.3 | 0.00 | 0.00 | 0.00 | 77 | 1012.6 |
| 20260502190044 | 16 | 228 | 6.4 | 19.3 | 0.00 | 0.00 | 0.00 | 77 | 1012.7 |
| 20260502185944 | 16 | 242 | 6.4 | 19.3 | 0.00 | 0.00 | 0.00 | 77 | 1012.7 |
| 20260502185844 | 16 | 219 | 4.8 | 16.1 | 0.00 | 0.00 | 0.00 | 77 | 1012.7 |
| 20260502185759 | 16 | 236 | 4.8 | 16.1 | 0.00 | 0.00 | 0.00 | 77 | 1012.7 |
| 20260502185743 | 16 | 215 | 4.8 | 16.1 | 0.00 | 0.00 | 0.00 | 77 | 1012.8 |
| 20260502185644 | 16 | 226 | 4.8 | 16.1 | 0.00 | 0.00 | 0.00 | 77 | 1012.7 |
| 20260502185544 | 16 | 256 | 4.8 | 16.1 | 0.00 | 0.00 | 0.00 | 78 | 1012.7 |
| 20260502185444 | 16 | 236 | 4.8 | 17.7 | 0.00 | 0.00 | 0.00 | 78 | 1012.7 |
| 20260502185344 | 16 | 230 | 4.8 | 17.7 | 0.00 | 0.00 | 0.00 | 78 | 1012.7 |
| 20260502185258 | 16 | 259 | 4.8 | 17.7 | 0.00 | 0.00 | 0.00 | 78 | 1012.7 |
| 20260502185244 | 16 | 281 | 4.8 | 17.7 | 0.00 | 0.00 | 0.00 | 79 | 1012.7 |
| 20260502185144 | 16 | 283 | 4.8 | 17.7 | 0.00 | 0.00 | 0.00 | 79 | 1012.7 |
| 20260502185044 | 16 | 217 | 4.8 | 19.3 | 0.00 | 0.00 | 0.00 | 78 | 1012.8 |
| 20260502184945 | 16 | 253 | 4.8 | 19.3 | 0.00 | 0.00 | 0.00 | 79 | 1012.7 |
| 20260502184844 | 16 | 236 | 6.4 | 19.3 | 0.00 | 0.00 | 0.00 | 79 | 1012.7 |
| 20260502184759 | 16 | 204 | 6.4 | 19.3 | 0.00 | 0.00 | 0.00 | 79 | 1012.7 |
| 20260502184744 | 16 | 262 | 6.4 | 19.3 | 0.00 | 0.00 | 0.00 | 80 | 1012.7 |
| 20260502184644 | 16 | 215 | 6.4 | 19.3 | 0.00 | 0.00 | 0.00 | 79 | 1012.7 |
| 20260502184545 | 15 | 256 | 6.4 | 19.3 | 0.00 | 0.00 | 0.00 | 79 | 1012.7 |
| 20260502184440 | 15 | 245 | 6.4 | 19.3 | 0.00 | 0.00 | 0.00 | 80 | 1012.7 |
| 20260502184341 | 15 | 264 | 6.4 | 19.3 | 0.00 | 0.00 | 0.00 | 80 | 1012.6 |
| 20260502184258 | 15 | 243 | 6.4 | 19.3 | 0.00 | 0.00 | 0.00 | 80 | 1012.6 |
| 20260502184240 | 15 | 243 | 8.0 | 19.3 | 0.00 | 0.00 | 0.00 | 80 | 1012.6 |
| 20260502184140 | 15 | 245 | 6.4 | 19.3 | 0.00 | 0.00 | 0.00 | 80 | 1012.7 |
| 20260502184040 | 15 | 239 | 8.0 | 19.3 | 0.00 | 0.00 | 0.00 | 80 | 1012.6 |
| 20260502183941 | 15 | 266 | 8.0 | 20.9 | 0.00 | 0.00 | 0.00 | 80 | 1012.7 |
| 20260502183838 | 15 | 238 | 8.0 | 20.9 | 0.00 | 0.00 | 0.00 | 80 | 1012.7 |
| 20260502183757 | 15 | 250 | 8.0 | 20.9 | 0.00 | 0.00 | 0.00 | 80 | 1012.7 |
| 20260502183738 | 15 | 236 | 8.0 | 20.9 | 0.00 | 0.00 | 0.00 | 80 | 1012.7 |
| 20260502183638 | 15 | 278 | 8.0 | 20.9 | 0.00 | 0.00 | 0.00 | 81 | 1012.7 |
| 20260502183538 | 15 | 225 | 8.0 | 20.9 | 0.00 | 0.00 | 0.00 | 81 | 1012.7 |
| 20260502183518 | 15 | 248 | 6.4 | 20.9 | 0.00 | 0.00 | 0.00 | 80 | 1012.8 |
| 20260502183437 | 15 | 215 | 8.0 | 20.9 | 0.00 | 0.00 | 0.00 | 81 | 1012.8 |
| 20260502183409 | 15 | 238 | 6.4 | 20.9 | 0.00 | 0.00 | 0.00 | 81 | 1012.8 |
| 20260502183236 | 15 | 228 | 6.4 | 20.9 | 0.00 | 0.00 | 0.00 | 80 | 1012.7 |
| 20260502183136 | 15 | 246 | 6.4 | 20.9 | 0.00 | 0.00 | 0.00 | 81 | 1012.7 |
| 20260502183035 | 15 | 238 | 6.4 | 20.9 | 0.00 | 0.00 | 0.00 | 80 | 1012.7 |
| 20260502182936 | 15 | 233 | 6.4 | 20.9 | 0.00 | 0.00 | 0.00 | 81 | 1012.7 |
| 20260502182836 | 15 | 181 | 6.4 | 20.9 | 0.00 | 0.00 | 0.00 | 81 | 1012.7 |
| 20260502182801 | 15 | 229 | 6.4 | 20.9 | 0.00 | 0.00 | 0.00 | 81 | 1012.7 |
| 20260502182736 | 15 | 232 | 6.4 | 20.9 | 0.00 | 0.00 | 0.00 | 81 | 1012.7 |
| 20260502182636 | 15 | 248 | 6.4 | 20.9 | 0.00 | 0.00 | 0.00 | 81 | 1012.7 |
| 20260502182536 | 15 | 219 | 6.4 | 20.9 | 0.00 | 0.00 | 0.00 | 80 | 1012.8 |
| 20260502182436 | 15 | 253 | 6.4 | 20.9 | 0.00 | 0.00 | 0.00 | 80 | 1012.7 |
| 20260502182334 | 15 | 269 | 8.0 | 20.9 | 0.00 | 0.00 | 0.00 | 81 | 1012.8 |
| 20260502182259 | 15 | 214 | 8.0 | 20.9 | 0.00 | 0.00 | 0.00 | 81 | 1012.8 |
| 20260502182234 | 15 | 283 | 8.0 | 20.9 | 0.00 | 0.00 | 0.00 | 80 | 1012.8 |
| 20260502182134 | 15 | 263 | 8.0 | 20.9 | 0.00 | 0.00 | 0.00 | 80 | 1012.8 |
| 20260502182028 | 15 | 246 | 8.0 | 20.9 | 0.00 | 0.00 | 0.00 | 80 | 1012.8 |
| 20260502181928 | 15 | 203 | 6.4 | 20.9 | 0.00 | 0.00 | 0.00 | 80 | 1012.8 |
| 20260502181828 | 15 | 242 | 8.0 | 17.7 | 0.00 | 0.00 | 0.00 | 80 | 1012.8 |
| 20260502181758 | 15 | 288 | 8.0 | 17.7 | 0.00 | 0.00 | 0.00 | 80 | 1012.8 |
| 20260502181728 | 15 | 256 | 8.0 | 19.3 | 0.00 | 0.00 | 0.00 | 80 | 1012.7 |
| 20260502181628 | 15 | 236 | 8.0 | 19.3 | 0.00 | 0.00 | 0.00 | 80 | 1012.7 |
| 20260502181528 | 15 | 240 | 8.0 | 19.3 | 0.00 | 0.00 | 0.00 | 80 | 1012.7 |
| 20260502181429 | 15 | 235 | 8.0 | 19.3 | 0.00 | 0.00 | 0.00 | 80 | 1012.7 |
| 20260502181256 | 15 | 253 | 6.4 | 19.3 | 0.00 | 0.00 | 0.00 | 79 | 1012.7 |
| 20260502181229 | 15 | 214 | 6.4 | 19.3 | 0.00 | 0.00 | 0.00 | 79 | 1012.7 |
| 20260502181128 | 15 | 255 | 6.4 | 19.3 | 0.00 | 0.00 | 0.00 | 79 | 1012.7 |
| 20260502181028 | 15 | 238 | 6.4 | 19.3 | 0.00 | 0.00 | 0.00 | 79 | 1012.7 |
| 20260502180928 | 15 | 212 | 6.4 | 19.3 | 0.00 | 0.00 | 0.00 | 79 | 1012.7 |
| 20260502180828 | 15 | 193 | 4.8 | 19.3 | 0.00 | 0.00 | 0.00 | 78 | 1012.6 |
| 20260502180756 | 15 | 241 | 4.8 | 19.3 | 0.00 | 0.00 | 0.00 | 79 | 1012.6 |
| 20260502180728 | 15 | 155 | 4.8 | 16.1 | 0.00 | 0.00 | 0.00 | 79 | 1012.5 |
| 20260502180626 | 15 | 224 | 4.8 | 16.1 | 0.00 | 0.00 | 0.00 | 78 | 1012.5 |
| 20260502180526 | 15 | 215 | 4.8 | 16.1 | 0.00 | 0.00 | 0.00 | 78 | 1012.5 |
| 20260502180426 | 15 | 241 | 4.8 | 16.1 | 0.00 | 0.00 | 0.00 | 78 | 1012.5 |
| 20260502180326 | 15 | 248 | 4.8 | 16.1 | 0.00 | 0.00 | 0.00 | 78 | 1012.6 |
| 20260502180255 | 16 | 222 | 4.8 | 16.1 | 0.00 | 0.00 | 0.00 | 78 | 1012.6 |
| 20260502180228 | 16 | 240 | 4.8 | 16.1 | 0.00 | 0.00 | 0.00 | 79 | 1012.6 |
| 20260502180126 | 16 | 235 | 4.8 | 16.1 | 0.00 | 0.00 | 0.00 | 78 | 1012.6 |
| 20260502170515 | 15 | 170 | 4.8 | 19.3 | 0.00 | 0.00 | 0.00 | 81 | 1012.5 |
| 20260502170503 | 15 | 221 | 4.8 | 19.3 | 0.00 | 0.00 | 0.00 | 81 | 1012.5 |
| 20260502170415 | 15 | 296 | 6.4 | 19.3 | 0.00 | 0.00 | 0.00 | 81 | 1012.6 |
| 20260502170407 | 15 | 214 | 4.8 | 19.3 | 0.00 | 0.00 | 0.00 | 81 | 1012.5 |
| 20260502170202 | 15 | 264 | 4.8 | 19.3 | 0.00 | 0.00 | 0.00 | 80 | 1012.5 |
| 20260502164241 | 15 | 245 | 3.2 | 16.1 | 0.00 | 0.00 | 0.00 | 80 | 1012.4 |
| 20260502164138 | 15 | 242 | 3.2 | 16.1 | 0.00 | 0.00 | 0.00 | 80 | 1012.4 |
| 20260502164123 | 15 | 229 | 4.8 | 16.1 | 0.00 | 0.00 | 0.00 | 80 | 1012.4 |
| 20260502163938 | 15 | 223 | 4.8 | 19.3 | 0.00 | 0.00 | 0.00 | 80 | 1012.5 |
| 20260502163907 | 15 | 245 | 4.8 | 19.3 | 0.00 | 0.00 | 0.00 | 81 | 1012.5 |
| 20260502163734 | 15 | 226 | 6.4 | 19.3 | 0.00 | 0.00 | 0.00 | 81 | 1012.4 |
| 20260502163632 | 15 | 250 | 6.4 | 19.3 | 0.00 | 0.00 | 0.00 | 81 | 1012.5 |
| 20260502163532 | 15 | 251 | 6.4 | 19.3 | 0.00 | 0.00 | 0.00 | 81 | 1012.4 |
| 20260502163430 | 15 | 267 | 6.4 | 19.3 | 0.00 | 0.00 | 0.00 | 80 | 1012.4 |
| 20260502163331 | 15 | 238 | 6.4 | 19.3 | 0.00 | 0.00 | 0.00 | 80 | 1012.4 |
| 20260502163257 | 15 | 217 | 6.4 | 19.3 | 0.00 | 0.00 | 0.00 | 80 | 1012.4 |
| 20260502163229 | 15 | 262 | 6.4 | 19.3 | 0.00 | 0.00 | 0.00 | 79 | 1012.3 |
| 20260502163128 | 15 | 218 | 6.4 | 19.3 | 0.00 | 0.00 | 0.00 | 79 | 1012.3 |
| 20260502163028 | 15 | 176 | 4.8 | 19.3 | 0.00 | 0.00 | 0.00 | 79 | 1012.3 |
| 20260502162927 | 15 | 245 | 4.8 | 12.9 | 0.00 | 0.00 | 0.00 | 79 | 1012.3 |
| 20260502162828 | 15 | 294 | 4.8 | 12.9 | 0.00 | 0.00 | 0.00 | 79 | 1012.3 |
| 20260502162756 | 15 | 230 | 4.8 | 12.9 | 0.00 | 0.00 | 0.00 | 79 | 1012.3 |
| 20260502162716 | 15 | 205 | 4.8 | 12.9 | 0.00 | 0.00 | 0.00 | 79 | 1012.3 |
| 20260502162616 | 15 | 226 | 4.8 | 12.9 | 0.00 | 0.00 | 0.00 | 79 | 1012.3 |
| 20260502162516 | 15 | 255 | 4.8 | 12.9 | 0.00 | 0.00 | 0.00 | 79 | 1012.3 |
| 20260502162416 | 15 | 229 | 6.4 | 14.5 | 0.00 | 0.00 | 0.00 | 79 | 1012.3 |
| 20260502162316 | 15 | 259 | 6.4 | 14.5 | 0.00 | 0.00 | 0.00 | 80 | 1012.3 |
| 20260502162255 | 15 | 236 | 6.4 | 14.5 | 0.00 | 0.00 | 0.00 | 80 | 1012.3 |
| 20260502162216 | 15 | 232 | 6.4 | 14.5 | 0.00 | 0.00 | 0.00 | 80 | 1012.3 |
| 20260502162116 | 15 | 235 | 6.4 | 14.5 | 0.00 | 0.00 | 0.00 | 80 | 1012.3 |
| 20260502162016 | 15 | 242 | 6.4 | 17.7 | 0.00 | 0.00 | 0.00 | 80 | 1012.3 |
| 20260502161916 | 15 | 172 | 6.4 | 17.7 | 0.00 | 0.00 | 0.00 | 80 | 1012.3 |
| 20260502161817 | 15 | 253 | 6.4 | 17.7 | 0.00 | 0.00 | 0.00 | 80 | 1012.3 |
| 20260502161757 | 15 | 182 | 6.4 | 17.7 | 0.00 | 0.00 | 0.00 | 80 | 1012.3 |
| 20260502161716 | 15 | 248 | 6.4 | 17.7 | 0.00 | 0.00 | 0.00 | 80 | 1012.3 |
| 20260502161617 | 15 | 210 | 6.4 | 17.7 | 0.00 | 0.00 | 0.00 | 79 | 1012.3 |
| 20260502161516 | 15 | 292 | 6.4 | 17.7 | 0.00 | 0.00 | 0.00 | 79 | 1012.3 |
| 20260502161416 | 15 | 248 | 6.4 | 17.7 | 0.00 | 0.00 | 0.00 | 80 | 1012.3 |
| 20260502161316 | 15 | 226 | 6.4 | 17.7 | 0.00 | 0.00 | 0.00 | 80 | 1012.3 |
| 20260502161258 | 15 | 236 | 6.4 | 17.7 | 0.00 | 0.00 | 0.00 | 80 | 1012.3 |
| 20260502161217 | 15 | 214 | 6.4 | 17.7 | 0.00 | 0.00 | 0.00 | 80 | 1012.3 |
| 20260502161116 | 15 | 259 | 6.4 | 17.7 | 0.00 | 0.00 | 0.00 | 79 | 1012.4 |
| 20260502161010 | 15 | 210 | 4.8 | 12.9 | 0.00 | 0.00 | 0.00 | 80 | 1012.3 |
| 20260502160910 | 15 | 241 | 4.8 | 12.9 | 0.00 | 0.00 | 0.00 | 79 | 1012.3 |
| 20260502160810 | 15 | 226 | 4.8 | 12.9 | 0.00 | 0.00 | 0.00 | 79 | 1012.2 |
| 20260502160749 | 15 | 228 | 4.8 | 12.9 | 0.00 | 0.00 | 0.00 | 79 | 1012.2 |
| 20260502160710 | 15 | 249 | 4.8 | 12.9 | 0.00 | 0.00 | 0.00 | 79 | 1012.2 |
| 20260502160610 | 15 | 219 | 4.8 | 12.9 | 0.00 | 0.00 | 0.00 | 79 | 1012.2 |
| 20260502160505 | 15 | 252 | 4.8 | 12.9 | 0.00 | 0.00 | 0.00 | 79 | 1012.3 |
| 20260502160404 | 15 | 232 | 4.8 | 12.9 | 0.00 | 0.00 | 0.00 | 79 | 1012.3 |
| 20260502160304 | 15 | 280 | 4.8 | 12.9 | 0.00 | 0.00 | 0.00 | 79 | 1012.3 |
| 20260502160245 | 15 | 210 | 3.2 | 12.9 | 0.00 | 0.00 | 0.00 | 80 | 1012.3 |
| 20260502160204 | 15 | 240 | 3.2 | 12.9 | 0.00 | 0.00 | 0.00 | 80 | 1012.3 |
| 20260502160104 | 15 | 229 | 3.2 | 12.9 | 0.00 | 0.00 | 0.00 | 80 | 1012.3 |
| 20260502152316 | 13 | 198 | 4.8 | 12.9 | 0.00 | 0.00 | 0.00 | 86 | 1011.9 |
| 20260502152234 | 13 | 219 | 4.8 | 12.9 | 0.00 | 0.00 | 0.00 | 86 | 1011.9 |
| 20260502152216 | 13 | 233 | 4.8 | 12.9 | 0.00 | 0.00 | 0.00 | 86 | 1011.9 |
| 20260502152115 | 13 | 228 | 6.4 | 12.9 | 0.00 | 0.00 | 0.00 | 86 | 1011.9 |
| 20260502152015 | 13 | 240 | 6.4 | 12.9 | 0.00 | 0.00 | 0.00 | 86 | 1011.9 |
| 20260502151953 | 13 | 233 | 4.8 | 11.3 | 0.00 | 0.00 | 0.00 | 86 | 1012.0 |
| 20260502151914 | 13 | 259 | 4.8 | 12.9 | 0.00 | 0.00 | 0.00 | 86 | 1012.0 |
| 20260502151843 | 13 | 289 | 4.8 | 12.9 | 0.00 | 0.00 | 0.00 | 86 | 1012.0 |
| 20260502151712 | 13 | 248 | 4.8 | 11.3 | 0.00 | 0.00 | 0.00 | 86 | 1012.0 |
| 20260502151612 | 13 | 224 | 4.8 | 16.1 | 0.00 | 0.00 | 0.00 | 86 | 1012.0 |
| 20260502151512 | 13 | 184 | 6.4 | 16.1 | 0.00 | 0.00 | 0.00 | 86 | 1012.0 |
| 20260502151413 | 13 | 245 | 4.8 | 16.1 | 0.00 | 0.00 | 0.00 | 86 | 1012.0 |
| 20260502151312 | 13 | 235 | 4.8 | 16.1 | 0.00 | 0.00 | 0.00 | 86 | 1012.0 |
| 20260502151232 | 13 | 228 | 4.8 | 16.1 | 0.00 | 0.00 | 0.00 | 86 | 1012.0 |
| 20260502151212 | 13 | 225 | 4.8 | 16.1 | 0.00 | 0.00 | 0.00 | 86 | 1012.0 |
| 20260502151112 | 13 | 236 | 4.8 | 16.1 | 0.00 | 0.00 | 0.00 | 86 | 1012.0 |
| 20260502151012 | 13 | 238 | 4.8 | 16.1 | 0.00 | 0.00 | 0.00 | 86 | 1012.0 |
| 20260502150951 | 13 | 236 | 4.8 | 16.1 | 0.00 | 0.00 | 0.00 | 86 | 1012.0 |
| 20260502150913 | 13 | 200 | 4.8 | 16.1 | 0.00 | 0.00 | 0.00 | 86 | 1012.0 |
| 20260502150842 | 13 | 177 | 4.8 | 16.1 | 0.00 | 0.00 | 0.00 | 86 | 1012.0 |
| 20260502150706 | 13 | 232 | 4.8 | 16.1 | 0.00 | 0.00 | 0.00 | 86 | 1012.0 |
| 20260502150605 | 13 | 188 | 4.8 | 12.9 | 0.00 | 0.00 | 0.00 | 87 | 1011.9 |
| 20260502150506 | 13 | 148 | 4.8 | 12.9 | 0.00 | 0.00 | 0.00 | 86 | 1011.9 |
| 20260502150406 | 13 | 233 | 4.8 | 12.9 | 0.00 | 0.00 | 0.00 | 86 | 1012.0 |
| 20260502150306 | 13 | 252 | 4.8 | 12.9 | 0.00 | 0.00 | 0.00 | 86 | 1011.9 |
| 20260502150231 | 13 | 252 | 3.2 | 12.9 | 0.00 | 0.00 | 0.00 | 86 | 1012.0 |
| 20260502150200 | 13 | 236 | 3.2 | 12.9 | 0.00 | 0.00 | 0.00 | 86 | 1012.0 |
| 20260502140107 | 12 | 240 | 3.2 | 16.1 | 0.00 | 0.00 | 0.00 | 88 | 1011.5 |
| 20260502130738 | 11 | 239 | 3.2 | 12.9 | 0.00 | 0.00 | 0.00 | 90 | 1011.0 |
| 20260502130727 | 11 | 219 | 3.2 | 12.9 | 0.00 | 0.00 | 0.00 | 90 | 1011.0 |
| 20260502130628 | 11 | 223 | 4.8 | 12.9 | 0.00 | 0.00 | 0.00 | 90 | 1010.9 |
| 20260502130526 | 11 | 231 | 4.8 | 12.9 | 0.00 | 0.00 | 0.00 | 90 | 1011.0 |
| 20260502130422 | 11 | 236 | 4.8 | 12.9 | 0.00 | 0.00 | 0.00 | 90 | 1011.0 |
| 20260502130320 | 11 | 235 | 3.2 | 12.9 | 0.00 | 0.00 | 0.00 | 90 | 1011.0 |
| 20260502130220 | 11 | 191 | 3.2 | 12.9 | 0.00 | 0.00 | 0.00 | 90 | 1011.0 |
| 20260502130200 | 11 | 250 | 3.2 | 12.9 | 0.00 | 0.00 | 0.00 | 90 | 1011.0 |
| 20260502130120 | 11 | 236 | 3.2 | 12.9 | 0.00 | 0.00 | 0.00 | 90 | 1011.0 |
| 20260502123806 | 11 | 200 | 1.6 | 6.4 | 0.00 | 0.00 | 0.00 | 91 | 1010.9 |
| 20260502123706 | 11 | 162 | 1.6 | 6.4 | 0.00 | 0.00 | 0.00 | 91 | 1010.9 |
| 20260502123630 | 11 | 200 | 1.6 | 6.4 | 0.00 | 0.00 | 0.00 | 91 | 1010.9 |
| 20260502123604 | 11 | 235 | 1.6 | 6.4 | 0.00 | 0.00 | 0.00 | 91 | 1010.9 |
| 20260502123504 | 11 | 232 | 3.2 | 6.4 | 0.00 | 0.00 | 0.00 | 91 | 1010.9 |
| 20260502123405 | 11 | 195 | 1.6 | 6.4 | 0.00 | 0.00 | 0.00 | 91 | 1010.9 |
| 20260502123304 | 11 | 231 | 1.6 | 6.4 | 0.00 | 0.00 | 0.00 | 91 | 1010.9 |
| 20260502123200 | 11 | 226 | 3.2 | 8.0 | 0.00 | 0.00 | 0.00 | 91 | 1010.8 |
| 20260502123126 | 11 | 228 | 3.2 | 8.0 | 0.00 | 0.00 | 0.00 | 91 | 1010.8 |
| 20260502123058 | 11 | 235 | 3.2 | 8.0 | 0.00 | 0.00 | 0.00 | 91 | 1010.8 |
| 20260502122958 | 11 | 203 | 3.2 | 8.0 | 0.00 | 0.00 | 0.00 | 91 | 1010.8 |
| 20260502122856 | 11 | 200 | 1.6 | 8.0 | 0.00 | 0.00 | 0.00 | 91 | 1010.8 |
| 20260502122756 | 11 | 236 | 1.6 | 8.0 | 0.00 | 0.00 | 0.00 | 91 | 1010.8 |
| 20260502122652 | 11 | 221 | 3.2 | 8.0 | 0.00 | 0.00 | 0.00 | 91 | 1010.8 |
| 20260502122626 | 11 | 217 | 1.6 | 8.0 | 0.00 | 0.00 | 0.00 | 91 | 1010.8 |
| 20260502122551 | 11 | 212 | 1.6 | 8.0 | 0.00 | 0.00 | 0.00 | 91 | 1010.8 |
| 20260502122450 | 11 | 225 | 1.6 | 8.0 | 0.00 | 0.00 | 0.00 | 91 | 1010.8 |
| 20260502122350 | 11 | 232 | 1.6 | 8.0 | 0.00 | 0.00 | 0.00 | 91 | 1010.8 |
| 20260502122248 | 11 | 187 | 1.6 | 8.0 | 0.00 | 0.00 | 0.00 | 91 | 1010.8 |
| 20260502122146 | 11 | 217 | 1.6 | 9.7 | 0.00 | 0.00 | 0.00 | 91 | 1010.8 |
| 20260502122126 | 11 | 150 | 1.6 | 9.7 | 0.00 | 0.00 | 0.00 | 91 | 1010.8 |
| 20260502122042 | 11 | 158 | 3.2 | 9.7 | 0.00 | 0.00 | 0.00 | 91 | 1010.8 |
| 20260502121942 | 11 | 158 | 3.2 | 9.7 | 0.00 | 0.00 | 0.00 | 91 | 1010.8 |
| 20260502121842 | 11 | 221 | 3.2 | 9.7 | 0.00 | 0.00 | 0.00 | 91 | 1010.7 |
| 20260502121742 | 11 | 217 | 3.2 | 9.7 | 0.00 | 0.00 | 0.00 | 91 | 1010.8 |
| 20260502121623 | 11 | 221 | 3.2 | 9.7 | 0.00 | 0.00 | 0.00 | 91 | 1010.7 |
| 20260502121540 | 11 | 221 | 3.2 | 9.7 | 0.00 | 0.00 | 0.00 | 91 | 1010.8 |
| 20260502121440 | 11 | 231 | 3.2 | 9.7 | 0.00 | 0.00 | 0.00 | 91 | 1010.7 |
| 20260502121338 | 11 | 214 | 3.2 | 9.7 | 0.00 | 0.00 | 0.00 | 91 | 1010.7 |
| 20260502121235 | 11 | 216 | 1.6 | 9.7 | 0.00 | 0.00 | 0.00 | 91 | 1010.8 |
| 20260502121146 | 11 | 243 | 1.6 | 6.4 | 0.00 | 0.00 | 0.00 | 91 | 1010.8 |
| 20260502121135 | 11 | 245 | 1.6 | 6.4 | 0.00 | 0.00 | 0.00 | 91 | 1010.8 |
| 20260502121030 | 11 | 226 | 1.6 | 6.4 | 0.00 | 0.00 | 0.00 | 91 | 1010.7 |
| 20260502120930 | 11 | 166 | 1.6 | 6.4 | 0.00 | 0.00 | 0.00 | 91 | 1010.7 |
| 20260502120830 | 11 | 207 | 1.6 | 6.4 | 0.00 | 0.00 | 0.00 | 91 | 1010.8 |
| 20260502120728 | 11 | 214 | 1.6 | 6.4 | 0.00 | 0.00 | 0.00 | 91 | 1010.8 |
| 20260502120624 | 11 | 207 | 1.6 | 6.4 | 0.00 | 0.00 | 0.00 | 91 | 1010.8 |
| 20260502120522 | 11 | 205 | 1.6 | 6.4 | 0.00 | 0.00 | 0.00 | 91 | 1010.8 |
| 20260502120422 | 11 | 205 | 1.6 | 6.4 | 0.00 | 0.00 | 0.00 | 91 | 1010.8 |
| 20260502120322 | 11 | 222 | 0.0 | 6.4 | 0.00 | 0.00 | 0.00 | 91 | 1010.7 |
| 20260502120223 | 11 | 221 | 0.0 | 3.2 | 0.00 | 0.00 | 0.00 | 91 | 1010.7 |
| 20260502120126 | 11 | 215 | 1.6 | 4.8 | 0.00 | 0.00 | 0.00 | 91 | 1010.8 |
| 20260502115920 | 11 | 192 | 0.0 | 8.0 | 0.00 | 0.00 | 0.00 | 91 | 1010.9 |
| 20260502115820 | 11 | 193 | 0.0 | 8.0 | 0.00 | 0.00 | 0.00 | 91 | 1010.9 |
| 20260502115752 | 11 | 193 | 0.0 | 8.0 | 0.00 | 0.00 | 0.00 | 91 | 1010.8 |
| 20260502115720 | 11 | 193 | 0.0 | 8.0 | 0.00 | 0.00 | 0.00 | 91 | 1010.8 |
| 20260502115620 | 11 | 195 | 0.0 | 8.0 | 0.00 | 0.00 | 0.00 | 91 | 1010.8 |
| 20260502115518 | 11 | 207 | 1.6 | 8.0 | 0.00 | 0.00 | 0.00 | 91 | 1010.8 |
| 20260502115418 | 11 | 207 | 1.6 | 8.0 | 0.00 | 0.00 | 0.00 | 91 | 1010.8 |
| 20260502115318 | 11 | 207 | 1.6 | 8.0 | 0.00 | 0.00 | 0.00 | 91 | 1010.8 |
| 20260502115218 | 11 | 207 | 1.6 | 8.0 | 0.00 | 0.00 | 0.00 | 91 | 1010.8 |
| 20260502115122 | 11 | 205 | 0.0 | 8.0 | 0.00 | 0.00 | 0.00 | 91 | 1010.8 |
| 20260502115115 | 11 | 239 | 0.0 | 8.0 | 0.00 | 0.00 | 0.00 | 91 | 1010.8 |
| 20260502115016 | 11 | 167 | 1.6 | 4.8 | 0.00 | 0.00 | 0.00 | 91 | 1010.8 |
| 20260502114912 | 11 | 167 | 1.6 | 4.8 | 0.00 | 0.00 | 0.00 | 91 | 1010.9 |
| 20260502114812 | 11 | 168 | 1.6 | 6.4 | 0.00 | 0.00 | 0.00 | 91 | 1010.9 |
| 20260502114712 | 11 | 154 | 1.6 | 6.4 | 0.00 | 0.00 | 0.00 | 91 | 1010.9 |
| 20260502114612 | 11 | 229 | 1.6 | 6.4 | 0.00 | 0.00 | 0.00 | 91 | 1010.9 |
| 20260502114512 | 11 | 229 | 1.6 | 6.4 | 0.00 | 0.00 | 0.00 | 91 | 1010.8 |
| 20260502114412 | 11 | 195 | 1.6 | 6.4 | 0.00 | 0.00 | 0.00 | 91 | 1010.9 |
| 20260502114311 | 11 | 195 | 1.6 | 6.4 | 0.00 | 0.00 | 0.00 | 91 | 1010.9 |
| 20260502114210 | 11 | 184 | 1.6 | 6.4 | 0.00 | 0.00 | 0.00 | 91 | 1010.8 |
| 20260502114121 | 11 | 215 | 1.6 | 6.4 | 0.00 | 0.00 | 0.00 | 91 | 1010.9 |
| 20260502114110 | 11 | 216 | 1.6 | 6.4 | 0.00 | 0.00 | 0.00 | 91 | 1010.9 |
| 20260502113911 | 11 | 136 | 1.6 | 6.4 | 0.00 | 0.00 | 0.00 | 91 | 1010.9 |
| 20260502113811 | 11 | 200 | 1.6 | 4.8 | 0.00 | 0.00 | 0.00 | 91 | 1010.9 |
| 20260502113708 | 11 | 207 | 1.6 | 9.7 | 0.00 | 0.00 | 0.00 | 91 | 1010.9 |
| 20260502113618 | 11 | 191 | 1.6 | 9.7 | 0.00 | 0.00 | 0.00 | 91 | 1010.9 |
| 20260502113508 | 11 | 226 | 1.6 | 9.7 | 0.00 | 0.00 | 0.00 | 91 | 1010.9 |
| 20260502113408 | 11 | 226 | 1.6 | 9.7 | 0.00 | 0.00 | 0.00 | 91 | 1010.9 |
| 20260502113307 | 11 | 229 | 1.6 | 9.7 | 0.00 | 0.00 | 0.00 | 91 | 1010.9 |
| 20260502113208 | 11 | 229 | 3.2 | 9.7 | 0.00 | 0.00 | 0.00 | 91 | 1011.0 |
| 20260502113119 | 11 | 229 | 3.2 | 9.7 | 0.00 | 0.00 | 0.00 | 91 | 1011.0 |
| 20260502113106 | 11 | 230 | 3.2 | 9.7 | 0.00 | 0.00 | 0.00 | 91 | 1011.0 |
| 20260502113006 | 11 | 229 | 3.2 | 9.7 | 0.00 | 0.00 | 0.00 | 91 | 1010.9 |
| 20260502112906 | 11 | 228 | 3.2 | 9.7 | 0.00 | 0.00 | 0.00 | 91 | 1011.0 |
| 20260502112806 | 11 | 221 | 3.2 | 9.7 | 0.00 | 0.00 | 0.00 | 91 | 1011.0 |
| 20260502112706 | 11 | 144 | 1.6 | 4.8 | 0.00 | 0.00 | 0.00 | 91 | 1011.1 |
| 20260502112619 | 11 | 203 | 1.6 | 4.8 | 0.00 | 0.00 | 0.00 | 91 | 1011.1 |
| 20260502112607 | 11 | 200 | 1.6 | 4.8 | 0.00 | 0.00 | 0.00 | 91 | 1011.1 |
| 20260502112501 | 11 | 226 | 1.6 | 4.8 | 0.00 | 0.00 | 0.00 | 91 | 1011.1 |
| 20260502112400 | 11 | 214 | 1.6 | 4.8 | 0.00 | 0.00 | 0.00 | 91 | 1011.0 |
| 20260502112300 | 11 | 146 | 1.6 | 9.7 | 0.00 | 0.00 | 0.00 | 91 | 1011.1 |
| 20260502112201 | 11 | 161 | 1.6 | 9.7 | 0.00 | 0.00 | 0.00 | 91 | 1011.0 |
| 20260502112117 | 11 | 221 | 1.6 | 9.7 | 0.00 | 0.00 | 0.00 | 91 | 1011.1 |
| 20260502112100 | 11 | 221 | 1.6 | 9.7 | 0.00 | 0.00 | 0.00 | 91 | 1011.1 |
| 20260502112000 | 11 | 217 | 1.6 | 9.7 | 0.00 | 0.00 | 0.00 | 91 | 1011.1 |
| 20260502111900 | 11 | 144 | 1.6 | 9.7 | 0.00 | 0.00 | 0.00 | 91 | 1011.0 |
| 20260502111800 | 11 | 217 | 1.6 | 9.7 | 0.00 | 0.00 | 0.00 | 91 | 1011.1 |
| 20260502111701 | 11 | 215 | 1.6 | 9.7 | 0.00 | 0.00 | 0.00 | 91 | 1011.1 |
| 20260502111615 | 11 | 228 | 1.6 | 9.7 | 0.00 | 0.00 | 0.00 | 90 | 1011.1 |
| 20260502111600 | 11 | 228 | 1.6 | 9.7 | 0.00 | 0.00 | 0.00 | 90 | 1011.1 |
| 20260502111500 | 12 | 248 | 3.2 | 9.7 | 0.00 | 0.00 | 0.00 | 90 | 1011.1 |
| 20260502111400 | 12 | 248 | 3.2 | 9.7 | 0.00 | 0.00 | 0.00 | 91 | 1011.0 |
| 20260502111259 | 12 | 246 | 3.2 | 8.0 | 0.00 | 0.00 | 0.00 | 90 | 1011.0 |
| 20260502111200 | 12 | 177 | 3.2 | 8.0 | 0.00 | 0.00 | 0.00 | 90 | 1011.0 |
| 20260502111117 | 12 | 203 | 3.2 | 8.0 | 0.00 | 0.00 | 0.00 | 90 | 1011.0 |
| 20260502111100 | 12 | 203 | 3.2 | 8.0 | 0.00 | 0.00 | 0.00 | 90 | 1011.0 |
| 20260502111001 | 12 | 214 | 1.6 | 8.0 | 0.00 | 0.00 | 0.00 | 90 | 1011.0 |
| 20260502110901 | 12 | 223 | 1.6 | 8.0 | 0.00 | 0.00 | 0.00 | 90 | 1011.0 |
| 20260502110758 | 12 | 200 | 1.6 | 9.7 | 0.00 | 0.00 | 0.00 | 90 | 1011.0 |
| 20260502110658 | 12 | 204 | 1.6 | 9.7 | 0.00 | 0.00 | 0.00 | 90 | 1011.0 |
| 20260502110616 | 12 | 215 | 1.6 | 9.7 | 0.00 | 0.00 | 0.00 | 90 | 1011.0 |
| 20260502110559 | 12 | 216 | 1.6 | 9.7 | 0.00 | 0.00 | 0.00 | 90 | 1011.0 |
| 20260502110458 | 12 | 226 | 1.6 | 9.7 | 0.00 | 0.00 | 0.00 | 90 | 1011.0 |
| 20260502110358 | 12 | 226 | 1.6 | 9.7 | 0.00 | 0.00 | 0.00 | 90 | 1011.0 |
| 20260502110258 | 12 | 214 | 1.6 | 9.7 | 0.00 | 0.00 | 0.00 | 90 | 1011.1 |
| 20260502110158 | 12 | 198 | 1.6 | 9.7 | 0.00 | 0.00 | 0.00 | 90 | 1011.0 |
| 20260502110115 | 12 | 195 | 1.6 | 9.7 | 0.00 | 0.00 | 0.00 | 90 | 1011.0 |
| 20260502110058 | 12 | 195 | 1.6 | 9.7 | 0.00 | 0.00 | 0.00 | 90 | 1011.0 |
| 20260502105958 | 12 | 228 | 1.6 | 9.7 | 0.00 | 0.00 | 0.00 | 90 | 1011.0 |
| 20260502105858 | 12 | 226 | 3.2 | 9.7 | 0.00 | 0.00 | 0.00 | 90 | 1011.0 |
| 20260502105758 | 12 | 170 | 3.2 | 8.0 | 0.00 | 0.00 | 0.00 | 90 | 1011.0 |
| 20260502105658 | 12 | 193 | 3.2 | 8.0 | 0.00 | 0.00 | 0.00 | 90 | 1011.0 |
| 20260502105617 | 12 | 183 | 3.2 | 8.0 | 0.00 | 0.00 | 0.00 | 90 | 1010.9 |
| 20260502105558 | 12 | 183 | 3.2 | 8.0 | 0.00 | 0.00 | 0.00 | 90 | 1010.9 |
| 20260502105458 | 12 | 226 | 3.2 | 8.0 | 0.00 | 0.00 | 0.00 | 90 | 1010.9 |
| 20260502105352 | 12 | 161 | 3.2 | 8.0 | 0.00 | 0.00 | 0.00 | 90 | 1011.0 |
| 20260502105252 | 12 | 236 | 3.2 | 8.0 | 0.00 | 0.00 | 0.00 | 90 | 1010.9 |
| 20260502105149 | 12 | 237 | 3.2 | 8.0 | 0.00 | 0.00 | 0.00 | 90 | 1011.0 |
| 20260502105121 | 12 | 236 | 3.2 | 9.7 | 0.00 | 0.00 | 0.00 | 90 | 1011.0 |
| 20260502105050 | 12 | 236 | 3.2 | 9.7 | 0.00 | 0.00 | 0.00 | 90 | 1011.0 |
| 20260502104950 | 12 | 233 | 3.2 | 9.7 | 0.00 | 0.00 | 0.00 | 90 | 1011.0 |
| 20260502104844 | 12 | 249 | 3.2 | 9.7 | 0.00 | 0.00 | 0.00 | 90 | 1011.0 |
| 20260502104744 | 12 | 204 | 3.2 | 9.7 | 0.00 | 0.00 | 0.00 | 90 | 1011.0 |
| 20260502104644 | 12 | 248 | 3.2 | 9.7 | 0.00 | 0.00 | 0.00 | 90 | 1011.0 |
| 20260502104614 | 12 | 176 | 3.2 | 9.7 | 0.00 | 0.00 | 0.00 | 90 | 1011.0 |
| 20260502104544 | 12 | 197 | 3.2 | 9.7 | 0.00 | 0.00 | 0.00 | 90 | 1011.0 |
| 20260502104443 | 12 | 248 | 3.2 | 9.7 | 0.00 | 0.00 | 0.00 | 90 | 1011.0 |
| 20260502104338 | 12 | 243 | 3.2 | 9.7 | 0.00 | 0.00 | 0.00 | 89 | 1011.0 |
| 20260502104237 | 12 | 235 | 3.2 | 9.7 | 0.00 | 0.00 | 0.00 | 89 | 1011.0 |
| 20260502104138 | 12 | 239 | 3.2 | 9.7 | 0.00 | 0.00 | 0.00 | 89 | 1011.0 |
| 20260502104113 | 12 | 236 | 3.2 | 9.7 | 0.00 | 0.00 | 0.00 | 89 | 1011.0 |
| 20260502104038 | 12 | 259 | 3.2 | 9.7 | 0.00 | 0.00 | 0.00 | 89 | 1011.0 |
| 20260502103938 | 12 | 257 | 3.2 | 9.7 | 0.00 | 0.00 | 0.00 | 89 | 1011.1 |
| 20260502103839 | 12 | 226 | 3.2 | 9.7 | 0.00 | 0.00 | 0.00 | 89 | 1011.0 |
| 20260502103738 | 12 | 225 | 3.2 | 8.0 | 0.00 | 0.00 | 0.00 | 89 | 1011.0 |
| 20260502103638 | 12 | 232 | 3.2 | 8.0 | 0.00 | 0.00 | 0.00 | 89 | 1011.0 |
| 20260502103613 | 12 | 243 | 3.2 | 8.0 | 0.00 | 0.00 | 0.00 | 89 | 1011.0 |
| 20260502103538 | 12 | 225 | 1.6 | 8.0 | 0.00 | 0.00 | 0.00 | 89 | 1011.0 |
| 20260502103438 | 12 | 228 | 1.6 | 8.0 | 0.00 | 0.00 | 0.00 | 89 | 1011.0 |
| 20260502103338 | 12 | 195 | 1.6 | 8.0 | 0.00 | 0.00 | 0.00 | 89 | 1011.0 |
| 20260502103238 | 12 | 212 | 1.6 | 8.0 | 0.00 | 0.00 | 0.00 | 89 | 1011.0 |
| 20260502103138 | 12 | 216 | 1.6 | 8.0 | 0.00 | 0.00 | 0.00 | 89 | 1011.0 |
| 20260502103112 | 12 | 229 | 1.6 | 8.0 | 0.00 | 0.00 | 0.00 | 89 | 1011.0 |
| 20260502103039 | 12 | 229 | 1.6 | 8.0 | 0.00 | 0.00 | 0.00 | 89 | 1010.9 |
| 20260502102938 | 12 | 229 | 1.6 | 8.0 | 0.00 | 0.00 | 0.00 | 89 | 1010.9 |
| 20260502102838 | 12 | 243 | 1.6 | 8.0 | 0.00 | 0.00 | 0.00 | 89 | 1011.0 |
| 20260502102739 | 12 | 219 | 1.6 | 4.8 | 0.00 | 0.00 | 0.00 | 89 | 1011.0 |
| 20260502102638 | 12 | 221 | 1.6 | 4.8 | 0.00 | 0.00 | 0.00 | 88 | 1011.0 |
| 20260502102610 | 12 | 248 | 1.6 | 4.8 | 0.00 | 0.00 | 0.00 | 88 | 1011.0 |
| 20260502102538 | 12 | 248 | 1.6 | 4.8 | 0.00 | 0.00 | 0.00 | 88 | 1011.0 |
| 20260502102437 | 12 | 248 | 1.6 | 4.8 | 0.00 | 0.00 | 0.00 | 88 | 1011.0 |
| 20260502102336 | 12 | 248 | 1.6 | 4.8 | 0.00 | 0.00 | 0.00 | 88 | 1011.0 |
| 20260502102235 | 12 | 248 | 1.6 | 4.8 | 0.00 | 0.00 | 0.00 | 88 | 1011.1 |
| 20260502102136 | 12 | 171 | 1.6 | 4.8 | 0.00 | 0.00 | 0.00 | 88 | 1011.0 |
| 20260502102110 | 12 | 214 | 1.6 | 4.8 | 0.00 | 0.00 | 0.00 | 88 | 1011.0 |
| 20260502102036 | 12 | 238 | 1.6 | 4.8 | 0.00 | 0.00 | 0.00 | 88 | 1011.1 |
| 20260502101936 | 12 | 223 | 1.6 | 4.8 | 0.00 | 0.00 | 0.00 | 88 | 1011.1 |
| 20260502101836 | 12 | 232 | 1.6 | 6.4 | 0.00 | 0.00 | 0.00 | 88 | 1011.0 |
| 20260502101735 | 12 | 235 | 1.6 | 6.4 | 0.00 | 0.00 | 0.00 | 88 | 1011.0 |
| 20260502101611 | 12 | 212 | 1.6 | 6.4 | 0.00 | 0.00 | 0.00 | 88 | 1011.0 |
| 20260502101534 | 12 | 212 | 1.6 | 6.4 | 0.00 | 0.00 | 0.00 | 88 | 1011.0 |
| 20260502101433 | 12 | 212 | 3.2 | 6.4 | 0.00 | 0.00 | 0.00 | 88 | 1011.0 |
| 20260502101334 | 12 | 212 | 3.2 | 6.4 | 0.00 | 0.00 | 0.00 | 87 | 1011.0 |
| 20260502101230 | 12 | 228 | 3.2 | 6.4 | 0.00 | 0.00 | 0.00 | 87 | 1011.0 |
| 20260502101130 | 12 | 231 | 3.2 | 6.4 | 0.00 | 0.00 | 0.00 | 87 | 1011.0 |
| 20260502101108 | 12 | 210 | 3.2 | 6.4 | 0.00 | 0.00 | 0.00 | 87 | 1011.0 |
| 20260502101030 | 12 | 216 | 3.2 | 6.4 | 0.00 | 0.00 | 0.00 | 87 | 1011.0 |
| 20260502100929 | 12 | 231 | 3.2 | 6.4 | 0.00 | 0.00 | 0.00 | 87 | 1011.0 |
| 20260502100828 | 12 | 234 | 3.2 | 6.4 | 0.00 | 0.00 | 0.00 | 87 | 1011.0 |
| 20260502100728 | 12 | 208 | 3.2 | 6.4 | 0.00 | 0.00 | 0.00 | 87 | 1010.9 |
| 20260502100628 | 12 | 230 | 3.2 | 6.4 | 0.00 | 0.00 | 0.00 | 87 | 1010.9 |
| 20260502100607 | 12 | 229 | 3.2 | 6.4 | 0.00 | 0.00 | 0.00 | 87 | 1010.9 |
| 20260502100528 | 12 | 229 | 3.2 | 6.4 | 0.00 | 0.00 | 0.00 | 87 | 1011.0 |
| 20260502100428 | 12 | 217 | 3.2 | 6.4 | 0.00 | 0.00 | 0.00 | 87 | 1010.9 |
| 20260502100332 | 12 | 160 | 3.2 | 6.4 | 0.00 | 0.00 | 0.00 | 86 | 1010.9 |
| 20260502100328 | 12 | 134 | 3.2 | 6.4 | 0.00 | 0.00 | 0.00 | 87 | 1010.9 |
| 20260502100232 | 12 | 219 | 3.2 | 6.4 | 0.00 | 0.00 | 0.00 | 87 | 1010.9 |
| 20260502100224 | 12 | 236 | 3.2 | 6.4 | 0.00 | 0.00 | 0.00 | 86 | 1010.9 |
| 20260502091517 | 12 | 132 | 0.0 | 3.2 | 0.00 | 0.00 | 0.00 | 86 | 1011.2 |
| 20260502091418 | 12 | 132 | 0.0 | 3.2 | 0.00 | 0.00 | 0.00 | 86 | 1011.1 |
| 20260502091318 | 12 | 132 | 0.0 | 3.2 | 0.00 | 0.00 | 0.00 | 86 | 1011.2 |
| 20260502091219 | 12 | 132 | 0.0 | 3.2 | 0.00 | 0.00 | 0.00 | 86 | 1011.2 |
| 20260502091103 | 12 | 132 | 0.0 | 3.2 | 0.00 | 0.00 | 0.00 | 86 | 1011.2 |
| 20260502091014 | 12 | 132 | 0.0 | 3.2 | 0.00 | 0.00 | 0.00 | 86 | 1011.2 |
| 20260502090914 | 12 | 132 | 0.0 | 3.2 | 0.00 | 0.00 | 0.00 | 86 | 1011.2 |
| 20260502090814 | 12 | 142 | 0.0 | 1.6 | 0.00 | 0.00 | 0.00 | 86 | 1011.2 |
| 20260502090714 | 12 | 143 | 0.0 | 1.6 | 0.00 | 0.00 | 0.00 | 86 | 1011.2 |
| 20260502090604 | 12 | 143 | 0.0 | 0.0 | 0.00 | 0.00 | 0.00 | 86 | 1011.2 |
| 20260502090514 | 12 | 143 | 0.0 | 0.0 | 0.00 | 0.00 | 0.00 | 86 | 1011.2 |
| 20260502090414 | 12 | 143 | 0.0 | 0.0 | 0.00 | 0.00 | 0.00 | 86 | 1011.2 |
| 20260502090314 | 12 | 144 | 0.0 | 0.0 | 0.00 | 0.00 | 0.00 | 85 | 1011.2 |
| 20260502090214 | 12 | 142 | 0.0 | 0.0 | 0.00 | 0.00 | 0.00 | 85 | 1011.2 |
| 20260502090119 | 12 | 143 | 0.0 | 0.0 | 0.00 | 0.00 | 0.00 | 85 | 1011.2 |
| 20260502090109 | 13 | 142 | 0.0 | 0.0 | 0.00 | 0.00 | 0.00 | 85 | 1011.2 |
| 20260502071450 | 14 | 120 | 1.6 | 3.2 | 0.00 | 0.00 | 0.00 | 83 | 1011.4 |
| 20260502071350 | 14 | 118 | 0.0 | 3.2 | 0.00 | 0.00 | 0.00 | 83 | 1011.3 |
| 20260502071250 | 14 | 131 | 0.0 | 3.2 | 0.00 | 0.00 | 0.00 | 83 | 1011.3 |
| 20260502071150 | 14 | 145 | 0.0 | 3.2 | 0.00 | 0.00 | 0.00 | 82 | 1011.3 |
| 20260502071050 | 14 | 145 | 0.0 | 3.2 | 0.00 | 0.00 | 0.00 | 82 | 1011.3 |
| 20260502070950 | 14 | 145 | 0.0 | 3.2 | 0.00 | 0.00 | 0.00 | 82 | 1011.3 |
| 20260502070850 | 14 | 186 | 0.0 | 4.8 | 0.00 | 0.00 | 0.00 | 82 | 1011.3 |
| 20260502070824 | 14 | 219 | 1.6 | 4.8 | 0.00 | 0.00 | 0.00 | 82 | 1011.3 |
| 20260502070750 | 14 | 186 | 1.6 | 4.8 | 0.00 | 0.00 | 0.00 | 82 | 1011.3 |
| 20260502070710 | 14 | 181 | 1.6 | 4.8 | 0.00 | 0.00 | 0.00 | 82 | 1011.3 |
| 20260502070551 | 14 | 219 | 1.6 | 4.8 | 0.00 | 0.00 | 0.00 | 82 | 1011.3 |
| 20260502070450 | 14 | 219 | 1.6 | 4.8 | 0.00 | 0.00 | 0.00 | 82 | 1011.3 |
| 20260502070346 | 14 | 219 | 1.6 | 4.8 | 0.00 | 0.00 | 0.00 | 82 | 1011.3 |
| 20260502070246 | 14 | 219 | 1.6 | 4.8 | 0.00 | 0.00 | 0.00 | 82 | 1011.3 |
| 20260502070145 | 15 | 221 | 1.6 | 4.8 | 0.00 | 0.00 | 0.00 | 82 | 1011.3 |
| 20260502070107 | 15 | 221 | 1.6 | 6.4 | 0.00 | 0.00 | 0.00 | 82 | 1011.3 |
| 20260502070046 | 15 | 168 | 1.6 | 6.4 | 0.00 | 0.00 | 0.00 | 82 | 1011.2 |
| 20260502065947 | 15 | 194 | 3.2 | 9.7 | 0.00 | 0.00 | 0.00 | 82 | 1011.3 |
| 20260502065846 | 15 | 165 | 3.2 | 9.7 | 0.00 | 0.00 | 0.00 | 82 | 1011.2 |
| 20260502065746 | 15 | 155 | 3.2 | 9.7 | 0.00 | 0.00 | 0.00 | 82 | 1011.2 |
| 20260502065647 | 15 | 219 | 3.2 | 9.7 | 0.00 | 0.00 | 0.00 | 82 | 1011.2 |
| 20260502065546 | 15 | 210 | 3.2 | 9.7 | 0.00 | 0.00 | 0.00 | 82 | 1011.2 |
| 20260502065446 | 15 | 193 | 3.2 | 9.7 | 0.00 | 0.00 | 0.00 | 82 | 1011.2 |
| 20260502065345 | 15 | 193 | 3.2 | 9.7 | 0.00 | 0.00 | 0.00 | 82 | 1011.2 |
| 20260502065244 | 15 | 200 | 3.2 | 9.7 | 0.00 | 0.00 | 0.00 | 82 | 1011.2 |
| 20260502065138 | 15 | 228 | 1.6 | 9.7 | 0.00 | 0.00 | 0.00 | 82 | 1011.2 |
| 20260502065100 | 15 | 229 | 1.6 | 9.7 | 0.00 | 0.00 | 0.00 | 82 | 1011.2 |
| 20260502065039 | 15 | 231 | 1.6 | 9.7 | 0.00 | 0.00 | 0.00 | 82 | 1011.2 |
| 20260502064938 | 15 | 223 | 1.6 | 8.0 | 0.00 | 0.00 | 0.00 | 82 | 1011.2 |
| 20260502064838 | 15 | 235 | 0.0 | 8.0 | 0.00 | 0.00 | 0.00 | 82 | 1011.2 |
| 20260502064739 | 15 | 217 | 0.0 | 4.8 | 0.00 | 0.00 | 0.00 | 82 | 1011.2 |
| 20260502064636 | 15 | 219 | 0.0 | 3.2 | 0.00 | 0.00 | 0.00 | 82 | 1011.2 |
| 20260502064536 | 15 | 160 | 0.0 | 3.2 | 0.00 | 0.00 | 0.00 | 82 | 1011.2 |
| 20260502064436 | 15 | 161 | 0.0 | 3.2 | 0.00 | 0.00 | 0.00 | 82 | 1011.2 |
| 20260502064335 | 15 | 160 | 0.0 | 3.2 | 0.00 | 0.00 | 0.00 | 82 | 1011.2 |
| 20260502064309 | 15 | 211 | 0.0 | 1.6 | 0.00 | 0.00 | 0.00 | 82 | 1011.2 |
| 20260502064233 | 15 | 117 | 0.0 | 1.6 | 0.00 | 0.00 | 0.00 | 82 | 1011.2 |
| 20260502064158 | 15 | 117 | 0.0 | 1.6 | 0.00 | 0.00 | 0.00 | 82 | 1011.2 |
| 20260502064026 | 15 | 212 | 0.0 | 1.6 | 0.00 | 0.00 | 0.00 | 82 | 1011.2 |
| 20260502063926 | 15 | 211 | 0.0 | 1.6 | 0.00 | 0.00 | 0.00 | 82 | 1011.2 |
| 20260502063826 | 15 | 212 | 0.0 | 1.6 | 0.00 | 0.00 | 0.00 | 82 | 1011.2 |
| 20260502063727 | 15 | 211 | 0.0 | 1.6 | 0.00 | 0.00 | 0.00 | 82 | 1011.2 |
| 20260502063627 | 15 | 175 | 0.0 | 1.6 | 0.00 | 0.00 | 0.00 | 82 | 1011.2 |
| 20260502063525 | 15 | 175 | 0.0 | 3.2 | 0.00 | 0.00 | 0.00 | 82 | 1011.2 |
| 20260502063424 | 15 | 133 | 0.0 | 3.2 | 0.00 | 0.00 | 0.00 | 81 | 1011.2 |
| 20260502063322 | 15 | 132 | 0.0 | 3.2 | 0.00 | 0.00 | 0.00 | 82 | 1011.2 |
| 20260502063220 | 15 | 134 | 0.0 | 3.2 | 0.00 | 0.00 | 0.00 | 82 | 1011.2 |
| 20260502063121 | 15 | 134 | 0.0 | 3.2 | 0.00 | 0.00 | 0.00 | 81 | 1011.2 |
| 20260502063018 | 15 | 134 | 0.0 | 3.2 | 0.00 | 0.00 | 0.00 | 81 | 1011.1 |
| 20260502062923 | 15 | 146 | 0.0 | 3.2 | 0.00 | 0.00 | 0.00 | 81 | 1011.2 |
| 20260502062816 | 15 | 146 | 0.0 | 3.2 | 0.00 | 0.00 | 0.00 | 81 | 1011.2 |
| 20260502062714 | 15 | 146 | 0.0 | 3.2 | 0.00 | 0.00 | 0.00 | 81 | 1011.2 |
| 20260502062614 | 15 | 133 | 0.0 | 3.2 | 0.00 | 0.00 | 0.00 | 81 | 1011.2 |
| 20260502062512 | 15 | 132 | 0.0 | 3.2 | 0.00 | 0.00 | 0.00 | 81 | 1011.1 |
| 20260502062412 | 15 | 132 | 0.0 | 1.6 | 0.00 | 0.00 | 0.00 | 81 | 1011.1 |
| 20260502062310 | 15 | 132 | 0.0 | 1.6 | 0.00 | 0.00 | 0.00 | 81 | 1011.1 |
| 20260502062208 | 15 | 132 | 0.0 | 3.2 | 0.00 | 0.00 | 0.00 | 80 | 1011.1 |
| 20260502062106 | 15 | 132 | 0.0 | 3.2 | 0.00 | 0.00 | 0.00 | 80 | 1011.1 |
| 20260502062028 | 15 | 133 | 1.6 | 3.2 | 0.00 | 0.00 | 0.00 | 80 | 1011.1 |
| 20260502062006 | 15 | 132 | 1.6 | 3.2 | 0.00 | 0.00 | 0.00 | 80 | 1011.1 |
| 20260502061906 | 15 | 133 | 1.6 | 6.4 | 0.00 | 0.00 | 0.00 | 80 | 1011.1 |
| 20260502061805 | 15 | 132 | 1.6 | 6.4 | 0.00 | 0.00 | 0.00 | 80 | 1011.1 |
| 20260502061752 | 15 | 225 | 1.6 | 8.0 | 0.00 | 0.00 | 0.00 | 80 | 1011.1 |
| 20260502061702 | 15 | 132 | 1.6 | 6.4 | 0.00 | 0.00 | 0.00 | 80 | 1011.1 |
| 20260502061558 | 15 | 151 | 1.6 | 8.0 | 0.00 | 0.00 | 0.00 | 80 | 1011.1 |
| 20260502061457 | 15 | 225 | 1.6 | 8.0 | 0.00 | 0.00 | 0.00 | 80 | 1011.1 |
| 20260502061356 | 15 | 225 | 3.2 | 8.0 | 0.00 | 0.00 | 0.00 | 80 | 1011.1 |
| 20260502061300 | 15 | 221 | 3.2 | 8.0 | 0.00 | 0.00 | 0.00 | 80 | 1011.1 |
| 20260502061251 | 15 | 210 | 3.2 | 11.3 | 0.00 | 0.00 | 0.00 | 80 | 1011.1 |
| 20260502061157 | 15 | 223 | 3.2 | 11.3 | 0.00 | 0.00 | 0.00 | 80 | 1011.1 |
| 20260502061136 | 15 | 228 | 3.2 | 11.3 | 0.00 | 0.00 | 0.00 | 80 | 1011.1 |
| 20260502060954 | 15 | 219 | 3.2 | 11.3 | 0.00 | 0.00 | 0.00 | 79 | 1011.1 |
| 20260502060854 | 15 | 229 | 3.2 | 11.3 | 0.00 | 0.00 | 0.00 | 79 | 1011.1 |
| 20260502060752 | 15 | 229 | 3.2 | 11.3 | 0.00 | 0.00 | 0.00 | 79 | 1011.0 |
| 20260502060650 | 15 | 248 | 3.2 | 11.3 | 0.00 | 0.00 | 0.00 | 79 | 1011.0 |
| 20260502060525 | 15 | 236 | 3.2 | 11.3 | 0.00 | 0.00 | 0.00 | 79 | 1011.0 |
| 20260502060444 | 15 | 233 | 3.2 | 11.3 | 0.00 | 0.00 | 0.00 | 79 | 1011.1 |
| 20260502060344 | 16 | 237 | 3.2 | 11.3 | 0.00 | 0.00 | 0.00 | 79 | 1011.1 |
| 20260502060245 | 16 | 245 | 3.2 | 11.3 | 0.00 | 0.00 | 0.00 | 79 | 1011.1 |
| 20260502060144 | 16 | 193 | 3.2 | 11.3 | 0.00 | 0.00 | 0.00 | 79 | 1011.1 |
| 20260502060044 | 16 | 225 | 3.2 | 11.3 | 0.00 | 0.00 | 0.00 | 79 | 1011.1 |
| 20260502060026 | 16 | 219 | 3.2 | 11.3 | 0.00 | 0.00 | 0.00 | 79 | 1011.1 |
| 20260502055942 | 16 | 229 | 3.2 | 11.3 | 0.00 | 0.00 | 0.00 | 79 | 1011.1 |
| 20260502055842 | 16 | 234 | 3.2 | 11.3 | 0.00 | 0.00 | 0.00 | 79 | 1011.1 |
| 20260502055741 | 16 | 217 | 3.2 | 11.3 | 0.00 | 0.00 | 0.00 | 79 | 1011.0 |
| 20260502055640 | 16 | 222 | 3.2 | 11.3 | 0.00 | 0.00 | 0.00 | 79 | 1011.1 |
| 20260502055534 | 16 | 235 | 3.2 | 11.3 | 0.00 | 0.00 | 0.00 | 79 | 1011.1 |
| 20260502055524 | 16 | 250 | 3.2 | 11.3 | 0.00 | 0.00 | 0.00 | 79 | 1011.1 |
| 20260502055432 | 16 | 204 | 3.2 | 11.3 | 0.00 | 0.00 | 0.00 | 79 | 1011.0 |
| 20260502055333 | 16 | 194 | 3.2 | 11.3 | 0.00 | 0.00 | 0.00 | 79 | 1011.1 |
| 20260502055232 | 16 | 230 | 3.2 | 11.3 | 0.00 | 0.00 | 0.00 | 79 | 1011.1 |
| 20260502055132 | 16 | 135 | 3.2 | 11.3 | 0.00 | 0.00 | 0.00 | 79 | 1011.1 |
| 20260502055022 | 16 | 217 | 3.2 | 11.3 | 0.00 | 0.00 | 0.00 | 79 | 1011.1 |
| 20260502054926 | 16 | 211 | 3.2 | 11.3 | 0.00 | 0.00 | 0.00 | 79 | 1011.1 |
| 20260502054826 | 16 | 232 | 3.2 | 11.3 | 0.00 | 0.00 | 0.00 | 79 | 1011.1 |
| 20260502054745 | 16 | 226 | 3.2 | 12.9 | 0.00 | 0.00 | 0.00 | 79 | 1011.1 |
| 20260502054728 | 16 | 204 | 3.2 | 12.9 | 0.00 | 0.00 | 0.00 | 79 | 1011.1 |
| 20260502054642 | 16 | 227 | 3.2 | 12.9 | 0.00 | 0.00 | 0.00 | 79 | 1011.1 |
| 20260502054632 | 16 | 226 | 3.2 | 12.9 | 0.00 | 0.00 | 0.00 | 79 | 1011.1 |
| 20260502054424 | 16 | 249 | 3.2 | 12.9 | 0.00 | 0.00 | 0.00 | 79 | 1011.1 |
| 20260502054322 | 16 | 232 | 4.8 | 12.9 | 0.00 | 0.00 | 0.00 | 79 | 1011.0 |
| 20260502054223 | 16 | 238 | 4.8 | 12.9 | 0.00 | 0.00 | 0.00 | 79 | 1011.1 |
| 20260502054120 | 16 | 222 | 4.8 | 12.9 | 0.00 | 0.00 | 0.00 | 79 | 1011.1 |
| 20260502054036 | 16 | 228 | 4.8 | 12.9 | 0.00 | 0.00 | 0.00 | 79 | 1011.1 |
| 20260502053914 | 16 | 240 | 4.8 | 12.9 | 0.00 | 0.00 | 0.00 | 79 | 1011.1 |
| 20260502053814 | 16 | 217 | 4.8 | 12.9 | 0.00 | 0.00 | 0.00 | 79 | 1011.0 |
| 20260502053715 | 16 | 253 | 4.8 | 12.9 | 0.00 | 0.00 | 0.00 | 79 | 1011.1 |
| 20260502053614 | 16 | 205 | 4.8 | 12.9 | 0.00 | 0.00 | 0.00 | 79 | 1011.1 |
| 20260502053520 | 16 | 218 | 6.4 | 17.7 | 0.00 | 0.00 | 0.00 | 79 | 1011.1 |
| 20260502053510 | 16 | 239 | 6.4 | 17.7 | 0.00 | 0.00 | 0.00 | 79 | 1011.1 |
| 20260502053408 | 16 | 200 | 6.4 | 17.7 | 0.00 | 0.00 | 0.00 | 79 | 1011.1 |
| 20260502053308 | 16 | 238 | 6.4 | 17.7 | 0.00 | 0.00 | 0.00 | 78 | 1011.1 |
| 20260502053208 | 16 | 232 | 6.4 | 17.7 | 0.00 | 0.00 | 0.00 | 78 | 1011.1 |
| 20260502053108 | 16 | 155 | 6.4 | 17.7 | 0.00 | 0.00 | 0.00 | 78 | 1011.1 |
| 20260502053021 | 16 | 219 | 6.4 | 17.7 | 0.00 | 0.00 | 0.00 | 78 | 1011.1 |
| 20260502053004 | 16 | 217 | 6.4 | 17.7 | 0.00 | 0.00 | 0.00 | 78 | 1011.1 |
| 20260502052903 | 16 | 226 | 6.4 | 17.7 | 0.00 | 0.00 | 0.00 | 78 | 1011.1 |
| 20260502052802 | 16 | 242 | 6.4 | 17.7 | 0.00 | 0.00 | 0.00 | 78 | 1011.1 |
| 20260502052745 | 16 | 233 | 4.8 | 16.1 | 0.00 | 0.00 | 0.00 | 78 | 1011.1 |
| 20260502052702 | 16 | 240 | 6.4 | 17.7 | 0.00 | 0.00 | 0.00 | 78 | 1011.1 |
| 20260502052630 | 16 | 210 | 6.4 | 17.7 | 0.00 | 0.00 | 0.00 | 78 | 1011.1 |
| 20260502052457 | 16 | 208 | 4.8 | 16.1 | 0.00 | 0.00 | 0.00 | 78 | 1011.1 |
| 20260502052356 | 16 | 246 | 4.8 | 14.5 | 0.00 | 0.00 | 0.00 | 78 | 1011.1 |
| 20260502052256 | 16 | 174 | 4.8 | 14.5 | 0.00 | 0.00 | 0.00 | 78 | 1011.0 |
| 20260502052156 | 16 | 243 | 4.8 | 14.5 | 0.00 | 0.00 | 0.00 | 78 | 1011.1 |
| 20260502052056 | 16 | 253 | 4.8 | 14.5 | 0.00 | 0.00 | 0.00 | 78 | 1011.0 |
| 20260502052019 | 16 | 240 | 4.8 | 14.5 | 0.00 | 0.00 | 0.00 | 78 | 1011.0 |
| 20260502051950 | 16 | 240 | 4.8 | 14.5 | 0.00 | 0.00 | 0.00 | 78 | 1011.0 |
| 20260502051850 | 16 | 228 | 4.8 | 14.5 | 0.00 | 0.00 | 0.00 | 78 | 1011.0 |
| 20260502051750 | 16 | 225 | 4.8 | 14.5 | 0.00 | 0.00 | 0.00 | 78 | 1011.0 |
| 20260502051651 | 16 | 228 | 4.8 | 14.5 | 0.00 | 0.00 | 0.00 | 78 | 1011.0 |
| 20260502051550 | 16 | 250 | 4.8 | 14.5 | 0.00 | 0.00 | 0.00 | 78 | 1011.0 |
| 20260502051519 | 16 | 237 | 4.8 | 14.5 | 0.00 | 0.00 | 0.00 | 78 | 1011.0 |
| 20260502051444 | 16 | 217 | 6.4 | 14.5 | 0.00 | 0.00 | 0.00 | 78 | 1011.0 |
| 20260502051344 | 16 | 211 | 6.4 | 14.5 | 0.00 | 0.00 | 0.00 | 77 | 1011.0 |
| 20260502051252 | 16 | 234 | 6.4 | 14.5 | 0.00 | 0.00 | 0.00 | 77 | 1011.0 |
| 20260502051245 | 16 | 236 | 6.4 | 14.5 | 0.00 | 0.00 | 0.00 | 77 | 1011.0 |
| 20260502051144 | 16 | 229 | 6.4 | 14.5 | 0.00 | 0.00 | 0.00 | 77 | 1011.0 |
| 20260502051129 | 16 | 238 | 6.4 | 14.5 | 0.00 | 0.00 | 0.00 | 77 | 1011.0 |
| 20260502050943 | 17 | 228 | 6.4 | 14.5 | 0.00 | 0.00 | 0.00 | 77 | 1011.0 |
| 20260502050843 | 17 | 232 | 6.4 | 14.5 | 0.00 | 0.00 | 0.00 | 77 | 1011.0 |
| 20260502050742 | 17 | 190 | 6.4 | 14.5 | 0.00 | 0.00 | 0.00 | 77 | 1011.0 |
| 20260502050642 | 17 | 233 | 6.4 | 14.5 | 0.00 | 0.00 | 0.00 | 77 | 1010.9 |
| 20260502050543 | 17 | 203 | 6.4 | 14.5 | 0.00 | 0.00 | 0.00 | 77 | 1010.9 |
| 20260502050528 | 17 | 223 | 6.4 | 14.5 | 0.00 | 0.00 | 0.00 | 77 | 1010.9 |
| 20260502050443 | 17 | 242 | 6.4 | 14.5 | 0.00 | 0.00 | 0.00 | 77 | 1011.0 |
| 20260502050342 | 17 | 264 | 6.4 | 16.1 | 0.00 | 0.00 | 0.00 | 77 | 1011.0 |
| 20260502050242 | 17 | 224 | 6.4 | 16.1 | 0.00 | 0.00 | 0.00 | 77 | 1011.0 |
| 20260502050144 | 17 | 236 | 6.4 | 16.1 | 0.00 | 0.00 | 0.00 | 77 | 1011.0 |
| 20260502050043 | 17 | 245 | 6.4 | 16.1 | 0.00 | 0.00 | 0.00 | 77 | 1010.9 |
| 20260502050017 | 17 | 237 | 6.4 | 16.1 | 0.00 | 0.00 | 0.00 | 77 | 1010.9 |
| 20260502045944 | 17 | 229 | 6.4 | 16.1 | 0.00 | 0.00 | 0.00 | 77 | 1010.9 |
| 20260502045842 | 17 | 212 | 6.4 | 16.1 | 0.00 | 0.00 | 0.00 | 77 | 1010.9 |
| 20260502045744 | 17 | 232 | 6.4 | 16.1 | 0.00 | 0.00 | 0.00 | 77 | 1011.0 |
| 20260502045642 | 17 | 246 | 6.4 | 16.1 | 0.00 | 0.00 | 0.00 | 77 | 1011.0 |
| 20260502045542 | 17 | 224 | 6.4 | 16.1 | 0.00 | 0.00 | 0.00 | 76 | 1011.0 |
| 20260502045518 | 17 | 248 | 6.4 | 16.1 | 0.00 | 0.00 | 0.00 | 76 | 1011.0 |
| 20260502045442 | 17 | 233 | 6.4 | 16.1 | 0.00 | 0.00 | 0.00 | 76 | 1011.0 |
| 20260502045344 | 17 | 255 | 6.4 | 12.9 | 0.00 | 0.00 | 0.00 | 77 | 1011.0 |
| 20260502045244 | 17 | 239 | 6.4 | 12.9 | 0.00 | 0.00 | 0.00 | 76 | 1010.9 |
| 20260502045237 | 17 | 243 | 6.4 | 12.9 | 0.00 | 0.00 | 0.00 | 77 | 1011.0 |
| 20260502045226 | 17 | 235 | 6.4 | 14.5 | 0.00 | 0.00 | 0.00 | 76 | 1010.9 |
| 20260502045137 | 17 | 266 | 6.4 | 12.9 | 0.00 | 0.00 | 0.00 | 76 | 1011.0 |
| 20260502045127 | 17 | 228 | 6.4 | 12.9 | 0.00 | 0.00 | 0.00 | 76 | 1010.9 |
| 20260502044936 | 17 | 262 | 6.4 | 12.9 | 0.00 | 0.00 | 0.00 | 76 | 1010.9 |
| 20260502044849 | 17 | 246 | 6.4 | 14.5 | 0.00 | 0.00 | 0.00 | 76 | 1011.0 |
| 20260502044733 | 17 | 226 | 6.4 | 14.5 | 0.00 | 0.00 | 0.00 | 76 | 1011.0 |
| 20260502044630 | 17 | 236 | 6.4 | 14.5 | 0.00 | 0.00 | 0.00 | 76 | 1010.9 |
| 20260502044620 | 17 | 232 | 6.4 | 14.5 | 0.00 | 0.00 | 0.00 | 76 | 1010.9 |
| 20260502044431 | 17 | 225 | 6.4 | 14.5 | 0.00 | 0.00 | 0.00 | 76 | 1010.9 |
| 20260502044330 | 17 | 235 | 6.4 | 14.5 | 0.00 | 0.00 | 0.00 | 76 | 1010.9 |
| 20260502044227 | 17 | 236 | 6.4 | 14.5 | 0.00 | 0.00 | 0.00 | 76 | 1010.9 |
| 20260502044124 | 17 | 224 | 6.4 | 14.5 | 0.00 | 0.00 | 0.00 | 76 | 1010.9 |
| 20260502044024 | 17 | 229 | 6.4 | 14.5 | 0.00 | 0.00 | 0.00 | 76 | 1010.8 |
| 20260502044005 | 17 | 219 | 6.4 | 14.5 | 0.00 | 0.00 | 0.00 | 76 | 1010.8 |
| 20260502043925 | 17 | 217 | 6.4 | 14.5 | 0.00 | 0.00 | 0.00 | 75 | 1010.9 |
| 20260502043825 | 17 | 240 | 6.4 | 14.5 | 0.00 | 0.00 | 0.00 | 76 | 1010.9 |
| 20260502043723 | 17 | 219 | 6.4 | 14.5 | 0.00 | 0.00 | 0.00 | 75 | 1010.9 |
| 20260502043622 | 17 | 239 | 6.4 | 14.5 | 0.00 | 0.00 | 0.00 | 75 | 1010.9 |
| 20260502043522 | 18 | 228 | 6.4 | 14.5 | 0.00 | 0.00 | 0.00 | 75 | 1010.9 |
| 20260502043458 | 18 | 212 | 6.4 | 14.5 | 0.00 | 0.00 | 0.00 | 75 | 1010.9 |
| 20260502043420 | 18 | 212 | 6.4 | 14.5 | 0.00 | 0.00 | 0.00 | 75 | 1010.8 |
| 20260502043319 | 18 | 242 | 6.4 | 14.5 | 0.00 | 0.00 | 0.00 | 75 | 1010.9 |
| 20260502043213 | 18 | 228 | 6.4 | 14.5 | 0.00 | 0.00 | 0.00 | 75 | 1010.8 |
| 20260502043112 | 18 | 256 | 6.4 | 14.5 | 0.00 | 0.00 | 0.00 | 75 | 1010.8 |
| 20260502043012 | 18 | 250 | 6.4 | 14.5 | 0.00 | 0.00 | 0.00 | 75 | 1010.8 |
| 20260502042952 | 18 | 226 | 6.4 | 14.5 | 0.00 | 0.00 | 0.00 | 75 | 1010.8 |
| 20260502042912 | 18 | 250 | 6.4 | 14.5 | 0.00 | 0.00 | 0.00 | 75 | 1010.8 |
| 20260502042813 | 18 | 242 | 6.4 | 14.5 | 0.00 | 0.00 | 0.00 | 75 | 1010.8 |
| 20260502042706 | 18 | 250 | 6.4 | 12.9 | 0.00 | 0.00 | 0.00 | 75 | 1010.8 |
| 20260502042606 | 18 | 231 | 6.4 | 12.9 | 0.00 | 0.00 | 0.00 | 75 | 1010.8 |
| 20260502042507 | 18 | 253 | 4.8 | 12.9 | 0.00 | 0.00 | 0.00 | 75 | 1010.8 |
| 20260502042447 | 18 | 248 | 4.8 | 12.9 | 0.00 | 0.00 | 0.00 | 75 | 1010.7 |
| 20260502042407 | 18 | 240 | 4.8 | 12.9 | 0.00 | 0.00 | 0.00 | 75 | 1010.7 |
| 20260502042306 | 18 | 218 | 4.8 | 12.9 | 0.00 | 0.00 | 0.00 | 75 | 1010.7 |
| 20260502042202 | 18 | 225 | 4.8 | 12.9 | 0.00 | 0.00 | 0.00 | 74 | 1010.7 |
| 20260502042101 | 18 | 264 | 4.8 | 11.3 | 0.00 | 0.00 | 0.00 | 75 | 1010.7 |
| 20260502042000 | 18 | 231 | 4.8 | 14.5 | 0.00 | 0.00 | 0.00 | 74 | 1010.7 |
| 20260502041941 | 18 | 200 | 4.8 | 14.5 | 0.00 | 0.00 | 0.00 | 74 | 1010.7 |
| 20260502041900 | 18 | 240 | 4.8 | 14.5 | 0.00 | 0.00 | 0.00 | 74 | 1010.7 |
| 20260502041800 | 18 | 236 | 4.8 | 14.5 | 0.00 | 0.00 | 0.00 | 74 | 1010.6 |
| 20260502041654 | 18 | 230 | 4.8 | 16.1 | 0.00 | 0.00 | 0.00 | 74 | 1010.7 |
| 20260502041554 | 18 | 217 | 4.8 | 16.1 | 0.00 | 0.00 | 0.00 | 74 | 1010.6 |
| 20260502041454 | 18 | 222 | 4.8 | 16.1 | 0.00 | 0.00 | 0.00 | 74 | 1010.6 |
| 20260502041433 | 18 | 235 | 4.8 | 16.1 | 0.00 | 0.00 | 0.00 | 74 | 1010.7 |
| 20260502041354 | 18 | 243 | 4.8 | 16.1 | 0.00 | 0.00 | 0.00 | 74 | 1010.7 |
| 20260502041254 | 18 | 222 | 6.4 | 16.1 | 0.00 | 0.00 | 0.00 | 74 | 1010.6 |
| 20260502041148 | 18 | 269 | 6.4 | 16.1 | 0.00 | 0.00 | 0.00 | 74 | 1010.6 |
| 20260502041128 | 18 | 257 | 6.4 | 16.1 | 0.00 | 0.00 | 0.00 | 73 | 1010.6 |
| 20260502041055 | 18 | 268 | 6.4 | 16.1 | 0.00 | 0.00 | 0.00 | 73 | 1010.6 |
| 20260502041047 | 18 | 224 | 6.4 | 16.1 | 0.00 | 0.00 | 0.00 | 73 | 1010.7 |
| 20260502041036 | 18 | 245 | 6.4 | 16.1 | 0.00 | 0.00 | 0.00 | 73 | 1010.7 |
| 20260502040848 | 18 | 259 | 6.4 | 16.1 | 0.00 | 0.00 | 0.00 | 73 | 1010.7 |
| 20260502040757 | 18 | 225 | 6.4 | 16.1 | 0.00 | 0.00 | 0.00 | 73 | 1010.7 |
| 20260502040642 | 18 | 217 | 6.4 | 16.1 | 0.00 | 0.00 | 0.00 | 73 | 1010.6 |
| 20260502040543 | 18 | 212 | 6.4 | 16.1 | 0.00 | 0.00 | 0.00 | 73 | 1010.6 |
| 20260502040533 | 18 | 241 | 6.4 | 16.1 | 0.00 | 0.00 | 0.00 | 73 | 1010.6 |
| 20260502040342 | 18 | 241 | 6.4 | 16.1 | 0.00 | 0.00 | 0.00 | 73 | 1010.6 |
| 20260502040242 | 19 | 248 | 6.4 | 16.1 | 0.00 | 0.00 | 0.00 | 73 | 1010.6 |
| 20260502040143 | 19 | 262 | 4.8 | 12.9 | 0.00 | 0.00 | 0.00 | 73 | 1010.5 |
| 20260502040137 | 19 | 274 | 6.4 | 16.1 | 0.00 | 0.00 | 0.00 | 73 | 1010.4 |
| 20260502040038 | 19 | 208 | 6.4 | 16.1 | 0.00 | 0.00 | 0.00 | 73 | 1010.4 |
| 20260502040029 | 19 | 238 | 4.8 | 16.1 | 0.00 | 0.00 | 0.00 | 73 | 1010.5 |
| 20260502035836 | 19 | 240 | 6.4 | 12.9 | 0.00 | 0.00 | 0.00 | 73 | 1010.4 |
| 20260502035736 | 19 | 243 | 4.8 | 12.9 | 0.00 | 0.00 | 0.00 | 72 | 1010.4 |
| 20260502035639 | 19 | 174 | 6.4 | 12.9 | 0.00 | 0.00 | 0.00 | 72 | 1010.4 |
| 20260502035630 | 19 | 226 | 6.4 | 12.9 | 0.00 | 0.00 | 0.00 | 72 | 1010.4 |
| 20260502035531 | 19 | 233 | 6.4 | 12.9 | 0.00 | 0.00 | 0.00 | 72 | 1010.4 |
| 20260502035523 | 19 | 223 | 6.4 | 12.9 | 0.00 | 0.00 | 0.00 | 72 | 1010.4 |
| 20260502035331 | 19 | 235 | 6.4 | 12.9 | 0.00 | 0.00 | 0.00 | 72 | 1010.4 |
| 20260502035230 | 19 | 239 | 6.4 | 12.9 | 0.00 | 0.00 | 0.00 | 72 | 1010.3 |
| 20260502035131 | 20 | 250 | 6.4 | 12.9 | 0.00 | 0.00 | 0.00 | 71 | 1010.3 |
| 20260502035125 | 20 | 236 | 6.4 | 12.9 | 0.00 | 0.00 | 0.00 | 72 | 1010.3 |
| 20260502035032 | 20 | 242 | 6.4 | 12.9 | 0.00 | 0.00 | 0.00 | 71 | 1010.3 |
| 20260502035024 | 20 | 263 | 6.4 | 12.9 | 0.00 | 0.00 | 0.00 | 71 | 1010.3 |
| 20260502034824 | 20 | 259 | 6.4 | 12.9 | 0.00 | 0.00 | 0.00 | 71 | 1010.3 |
| 20260502034727 | 20 | 240 | 6.4 | 12.9 | 0.00 | 0.00 | 0.00 | 71 | 1010.3 |
| 20260502034620 | 20 | 226 | 6.4 | 12.9 | 0.00 | 0.00 | 0.00 | 71 | 1010.3 |
| 20260502034519 | 20 | 240 | 6.4 | 17.7 | 0.00 | 0.00 | 0.00 | 70 | 1010.2 |
| 20260502034418 | 20 | 250 | 6.4 | 17.7 | 0.00 | 0.00 | 0.00 | 70 | 1010.3 |
| 20260502034358 | 20 | 256 | 6.4 | 17.7 | 0.00 | 0.00 | 0.00 | 70 | 1010.3 |
| 20260502034319 | 20 | 233 | 4.8 | 17.7 | 0.00 | 0.00 | 0.00 | 70 | 1010.3 |
| 20260502034218 | 20 | 243 | 6.4 | 17.7 | 0.00 | 0.00 | 0.00 | 70 | 1010.2 |
| 20260502034112 | 20 | 222 | 6.4 | 17.7 | 0.00 | 0.00 | 0.00 | 70 | 1010.2 |
| 20260502034012 | 20 | 219 | 6.4 | 17.7 | 0.00 | 0.00 | 0.00 | 70 | 1010.2 |
| 20260502033912 | 20 | 240 | 6.4 | 17.7 | 0.00 | 0.00 | 0.00 | 69 | 1010.2 |
| 20260502033855 | 20 | 222 | 6.4 | 17.7 | 0.00 | 0.00 | 0.00 | 69 | 1010.2 |
| 20260502033812 | 20 | 221 | 6.4 | 17.7 | 0.00 | 0.00 | 0.00 | 69 | 1010.2 |
| 20260502033712 | 20 | 188 | 6.4 | 17.7 | 0.00 | 0.00 | 0.00 | 69 | 1010.2 |
| 20260502033608 | 20 | 226 | 6.4 | 17.7 | 0.00 | 0.00 | 0.00 | 69 | 1010.2 |
| 20260502033510 | 20 | 250 | 4.8 | 12.9 | 0.00 | 0.00 | 0.00 | 69 | 1010.2 |
| 20260502033409 | 20 | 246 | 4.8 | 12.9 | 0.00 | 0.00 | 0.00 | 69 | 1010.1 |
| 20260502033347 | 20 | 231 | 4.8 | 12.9 | 0.00 | 0.00 | 0.00 | 69 | 1010.1 |
| 20260502033309 | 20 | 242 | 4.8 | 14.5 | 0.00 | 0.00 | 0.00 | 69 | 1010.1 |
| 20260502033100 | 21 | 246 | 4.8 | 14.5 | 0.00 | 0.00 | 0.00 | 68 | 1010.0 |
| 20260502033000 | 21 | 241 | 4.8 | 14.5 | 0.00 | 0.00 | 0.00 | 68 | 1010.0 |
| 20260502032900 | 21 | 215 | 4.8 | 14.5 | 0.00 | 0.00 | 0.00 | 68 | 1010.0 |
| 20260502032840 | 21 | 245 | 4.8 | 14.5 | 0.00 | 0.00 | 0.00 | 68 | 1010.0 |
| 20260502032800 | 21 | 222 | 4.8 | 14.5 | 0.00 | 0.00 | 0.00 | 68 | 1010.0 |
| 20260502032700 | 21 | 236 | 6.4 | 14.5 | 0.00 | 0.00 | 0.00 | 68 | 1010.0 |
| 20260502032554 | 21 | 236 | 6.4 | 14.5 | 0.00 | 0.00 | 0.00 | 68 | 1010.0 |
| 20260502032455 | 21 | 235 | 6.4 | 14.5 | 0.00 | 0.00 | 0.00 | 67 | 1010.0 |
| 20260502032354 | 21 | 246 | 6.4 | 14.5 | 0.00 | 0.00 | 0.00 | 67 | 1010.0 |
| 20260502032335 | 21 | 203 | 6.4 | 14.5 | 0.00 | 0.00 | 0.00 | 67 | 1010.0 |
| 20260502032254 | 21 | 253 | 6.4 | 14.5 | 0.00 | 0.00 | 0.00 | 67 | 1010.0 |
| 20260502032154 | 21 | 235 | 6.4 | 14.5 | 0.00 | 0.00 | 0.00 | 67 | 1010.0 |
| 20260502032059 | 21 | 243 | 6.4 | 14.5 | 0.00 | 0.00 | 0.00 | 67 | 1009.9 |
| 20260502032050 | 21 | 264 | 6.4 | 14.5 | 0.00 | 0.00 | 0.00 | 68 | 1009.9 |
| 20260502031950 | 21 | 232 | 6.4 | 14.5 | 0.00 | 0.00 | 0.00 | 67 | 1009.9 |
| 20260502031939 | 21 | 253 | 6.4 | 14.5 | 0.00 | 0.00 | 0.00 | 67 | 1009.9 |
| 20260502031749 | 21 | 231 | 6.4 | 14.5 | 0.00 | 0.00 | 0.00 | 67 | 1009.9 |
| 20260502031649 | 21 | 239 | 4.8 | 14.5 | 0.00 | 0.00 | 0.00 | 67 | 1009.9 |
| 20260502031542 | 21 | 228 | 4.8 | 11.3 | 0.00 | 0.00 | 0.00 | 67 | 1009.9 |
| 20260502031442 | 21 | 213 | 6.4 | 12.9 | 0.00 | 0.00 | 0.00 | 67 | 1009.8 |
| 20260502031343 | 21 | 204 | 6.4 | 12.9 | 0.00 | 0.00 | 0.00 | 67 | 1009.9 |
| 20260502031323 | 21 | 215 | 6.4 | 12.9 | 0.00 | 0.00 | 0.00 | 67 | 1009.9 |
| 20260502031242 | 21 | 229 | 4.8 | 12.9 | 0.00 | 0.00 | 0.00 | 66 | 1009.9 |
| 20260502031142 | 21 | 233 | 4.8 | 12.9 | 0.00 | 0.00 | 0.00 | 66 | 1009.9 |
| 20260502031046 | 21 | 245 | 4.8 | 12.9 | 0.00 | 0.00 | 0.00 | 65 | 1009.9 |
| 20260502031038 | 21 | 245 | 4.8 | 12.9 | 0.00 | 0.00 | 0.00 | 66 | 1009.8 |
| 20260502030939 | 21 | 239 | 4.8 | 12.9 | 0.00 | 0.00 | 0.00 | 66 | 1009.8 |
| 20260502030926 | 21 | 233 | 4.8 | 12.9 | 0.00 | 0.00 | 0.00 | 65 | 1009.9 |
| 20260502030738 | 21 | 232 | 4.8 | 12.9 | 0.00 | 0.00 | 0.00 | 65 | 1009.8 |
| 20260502030637 | 22 | 228 | 6.4 | 12.9 | 0.00 | 0.00 | 0.00 | 65 | 1009.8 |
| 20260502030540 | 22 | 243 | 6.4 | 14.5 | 0.00 | 0.00 | 0.00 | 65 | 1009.8 |
| 20260502030530 | 22 | 246 | 6.4 | 12.9 | 0.00 | 0.00 | 0.00 | 65 | 1009.8 |
| 20260502030431 | 22 | 217 | 4.8 | 14.5 | 0.00 | 0.00 | 0.00 | 65 | 1009.8 |
| 20260502030421 | 22 | 235 | 6.4 | 14.5 | 0.00 | 0.00 | 0.00 | 65 | 1009.8 |
| 20260502030230 | 22 | 241 | 6.4 | 14.5 | 0.00 | 0.00 | 0.00 | 65 | 1009.8 |
| 20260502030131 | 22 | 215 | 6.4 | 14.5 | 0.00 | 0.00 | 0.00 | 65 | 1009.8 |
| 20260502030024 | 22 | 238 | 6.4 | 14.5 | 0.00 | 0.00 | 0.00 | 65 | 1009.8 |
| 20260502025924 | 22 | 245 | 6.4 | 14.5 | 0.00 | 0.00 | 0.00 | 65 | 1009.8 |
| 20260502025825 | 22 | 240 | 6.4 | 14.5 | 0.00 | 0.00 | 0.00 | 65 | 1009.8 |
| 20260502025811 | 22 | 231 | 6.4 | 14.5 | 0.00 | 0.00 | 0.00 | 65 | 1009.8 |
| 20260502025727 | 22 | 236 | 6.4 | 14.5 | 0.00 | 0.00 | 0.00 | 65 | 1009.8 |
| 20260502025624 | 22 | 193 | 6.4 | 14.5 | 0.00 | 0.00 | 0.00 | 65 | 1009.8 |
| 20260502025520 | 22 | 245 | 6.4 | 14.5 | 0.00 | 0.00 | 0.00 | 65 | 1009.7 |
| 20260502025418 | 22 | 236 | 6.4 | 16.1 | 0.00 | 0.00 | 0.00 | 65 | 1009.8 |
| 20260502025321 | 22 | 234 | 6.4 | 16.1 | 0.00 | 0.00 | 0.00 | 64 | 1009.7 |
| 20260502025310 | 22 | 236 | 6.4 | 16.1 | 0.00 | 0.00 | 0.00 | 64 | 1009.7 |
| 20260502025218 | 22 | 233 | 6.4 | 16.1 | 0.00 | 0.00 | 0.00 | 64 | 1009.7 |
| 20260502025118 | 22 | 216 | 6.4 | 16.1 | 0.00 | 0.00 | 0.00 | 64 | 1009.7 |
| 20260502025013 | 22 | 235 | 6.4 | 16.1 | 0.00 | 0.00 | 0.00 | 64 | 1009.7 |
| 20260502024912 | 22 | 224 | 8.0 | 16.1 | 0.00 | 0.00 | 0.00 | 63 | 1009.7 |
| 20260502024817 | 22 | 228 | 8.0 | 16.1 | 0.00 | 0.00 | 0.00 | 63 | 1009.7 |
| 20260502024713 | 22 | 245 | 8.0 | 16.1 | 0.00 | 0.00 | 0.00 | 63 | 1009.7 |
| 20260502024612 | 22 | 210 | 8.0 | 16.1 | 0.00 | 0.00 | 0.00 | 63 | 1009.8 |
| 20260502024507 | 22 | 231 | 8.0 | 17.7 | 0.00 | 0.00 | 0.00 | 63 | 1009.7 |
| 20260502024406 | 22 | 228 | 8.0 | 17.7 | 0.00 | 0.00 | 0.00 | 62 | 1009.8 |
| 20260502024313 | 22 | 235 | 8.0 | 17.7 | 0.00 | 0.00 | 0.00 | 62 | 1009.8 |
| 20260502024307 | 22 | 232 | 8.0 | 17.7 | 0.00 | 0.00 | 0.00 | 62 | 1009.8 |
| 20260502024206 | 22 | 194 | 8.0 | 17.7 | 0.00 | 0.00 | 0.00 | 62 | 1009.7 |
| 20260502024106 | 22 | 233 | 8.0 | 17.7 | 0.00 | 0.00 | 0.00 | 61 | 1009.8 |
| 20260502024000 | 22 | 222 | 8.0 | 17.7 | 0.00 | 0.00 | 0.00 | 61 | 1009.8 |
| 20260502023900 | 22 | 229 | 8.0 | 17.7 | 0.00 | 0.00 | 0.00 | 61 | 1009.8 |
| 20260502023807 | 23 | 295 | 8.0 | 17.7 | 0.00 | 0.00 | 0.00 | 61 | 1009.8 |
| 20260502023800 | 23 | 239 | 8.0 | 17.7 | 0.00 | 0.00 | 0.00 | 61 | 1009.8 |
| 20260502023701 | 23 | 243 | 8.0 | 17.7 | 0.00 | 0.00 | 0.00 | 61 | 1009.7 |
| 20260502023600 | 23 | 191 | 8.0 | 17.7 | 0.00 | 0.00 | 0.00 | 61 | 1009.8 |
| 20260502023527 | 23 | 262 | 8.0 | 14.5 | 0.00 | 0.00 | 0.00 | 60 | 1009.7 |
| 20260502023456 | 23 | 235 | 8.0 | 14.5 | 0.00 | 0.00 | 0.00 | 61 | 1009.7 |
| 20260502023420 | 23 | 242 | 8.0 | 14.5 | 0.00 | 0.00 | 0.00 | 60 | 1009.7 |
| 20260502023256 | 23 | 224 | 8.0 | 14.5 | 0.00 | 0.00 | 0.00 | 60 | 1009.7 |
| 20260502023156 | 23 | 235 | 6.4 | 14.5 | 0.00 | 0.00 | 0.00 | 60 | 1009.7 |
| 20260502023054 | 23 | 211 | 6.4 | 12.9 | 0.00 | 0.00 | 0.00 | 60 | 1009.6 |
| 20260502022950 | 23 | 218 | 6.4 | 12.9 | 0.00 | 0.00 | 0.00 | 59 | 1009.6 |
| 20260502022849 | 23 | 233 | 6.4 | 12.9 | 0.00 | 0.00 | 0.00 | 59 | 1009.6 |
| 20260502022807 | 23 | 228 | 6.4 | 14.5 | 0.00 | 0.00 | 0.00 | 59 | 1009.6 |
| 20260502022748 | 23 | 252 | 6.4 | 14.5 | 0.00 | 0.00 | 0.00 | 59 | 1009.6 |
| 20260502022648 | 23 | 226 | 6.4 | 14.5 | 0.00 | 0.00 | 0.00 | 59 | 1009.6 |
| 20260502022548 | 23 | 233 | 6.4 | 14.5 | 0.00 | 0.00 | 0.00 | 58 | 1009.6 |
| 20260502022443 | 23 | 210 | 4.8 | 14.5 | 0.00 | 0.00 | 0.00 | 58 | 1009.6 |
| 20260502022342 | 23 | 210 | 4.8 | 14.5 | 0.00 | 0.00 | 0.00 | 58 | 1009.6 |
| 20260502022308 | 23 | 239 | 4.8 | 14.5 | 0.00 | 0.00 | 0.00 | 58 | 1009.6 |
| 20260502022254 | 23 | 224 | 4.8 | 16.1 | 0.00 | 0.00 | 0.00 | 57 | 1009.6 |
| 20260502022242 | 23 | 262 | 4.8 | 14.5 | 0.00 | 0.00 | 0.00 | 58 | 1009.6 |
| 20260502022147 | 23 | 208 | 4.8 | 14.5 | 0.00 | 0.00 | 0.00 | 58 | 1009.6 |
| 20260502022138 | 23 | 198 | 4.8 | 16.1 | 0.00 | 0.00 | 0.00 | 58 | 1009.6 |
| 20260502021938 | 23 | 217 | 4.8 | 16.1 | 0.00 | 0.00 | 0.00 | 57 | 1009.6 |
| 20260502021919 | 23 | 253 | 4.8 | 16.1 | 0.00 | 0.00 | 0.00 | 57 | 1009.6 |
| 20260502021737 | 23 | 238 | 4.8 | 16.1 | 0.00 | 0.00 | 0.00 | 57 | 1009.6 |
| 20260502021636 | 23 | 226 | 4.8 | 16.1 | 0.00 | 0.00 | 0.00 | 56 | 1009.5 |
| 20260502021536 | 23 | 225 | 4.8 | 16.1 | 0.00 | 0.00 | 0.00 | 56 | 1009.6 |
| 20260502021430 | 23 | 245 | 4.8 | 16.1 | 0.00 | 0.00 | 0.00 | 56 | 1009.6 |
| 20260502021330 | 23 | 224 | 4.8 | 16.1 | 0.00 | 0.00 | 0.00 | 56 | 1009.6 |
| 20260502021308 | 23 | 264 | 4.8 | 16.1 | 0.00 | 0.00 | 0.00 | 55 | 1009.6 |
| 20260502021230 | 23 | 219 | 4.8 | 16.1 | 0.00 | 0.00 | 0.00 | 56 | 1009.6 |
| 20260502021130 | 23 | 250 | 3.2 | 12.9 | 0.00 | 0.00 | 0.00 | 56 | 1009.6 |
| 20260502021030 | 23 | 221 | 3.2 | 12.9 | 0.00 | 0.00 | 0.00 | 56 | 1009.6 |
| 20260502020926 | 23 | 203 | 3.2 | 12.9 | 0.00 | 0.00 | 0.00 | 56 | 1009.5 |
| 20260502020807 | 23 | 212 | 3.2 | 12.9 | 0.00 | 0.00 | 0.00 | 56 | 1009.6 |
| 20260502020727 | 24 | 208 | 3.2 | 12.9 | 0.00 | 0.00 | 0.00 | 55 | 1009.6 |
| 20260502020627 | 24 | 212 | 3.2 | 12.9 | 0.00 | 0.00 | 0.00 | 55 | 1009.5 |
| 20260502020530 | 24 | 218 | 4.8 | 9.7 | 0.00 | 0.00 | 0.00 | 55 | 1009.5 |
| 20260502020524 | 24 | 224 | 3.2 | 9.7 | 0.00 | 0.00 | 0.00 | 55 | 1009.5 |
| 20260502020427 | 24 | 181 | 4.8 | 9.7 | 0.00 | 0.00 | 0.00 | 55 | 1009.5 |
| 20260502020419 | 24 | 229 | 4.8 | 9.7 | 0.00 | 0.00 | 0.00 | 55 | 1009.5 |
| 20260502020218 | 24 | 236 | 4.8 | 9.7 | 0.00 | 0.00 | 0.00 | 55 | 1009.6 |
| 20260502020118 | 24 | 239 | 4.8 | 9.7 | 0.00 | 0.00 | 0.00 | 54 | 1009.5 |
| 20260502020018 | 24 | 233 | 4.8 | 9.7 | 0.00 | 0.00 | 0.00 | 54 | 1009.6 |
| 20260502015919 | 24 | 233 | 4.8 | 9.7 | 0.00 | 0.00 | 0.00 | 54 | 1009.5 |
| 20260502015818 | 24 | 217 | 6.4 | 9.7 | 0.00 | 0.00 | 0.00 | 54 | 1009.5 |
| 20260502015807 | 24 | 161 | 6.4 | 9.7 | 0.00 | 0.00 | 0.00 | 54 | 1009.5 |
| 20260502015717 | 24 | 228 | 6.4 | 9.7 | 0.00 | 0.00 | 0.00 | 53 | 1009.5 |
| 20260502015616 | 24 | 222 | 4.8 | 9.7 | 0.00 | 0.00 | 0.00 | 53 | 1009.5 |
| 20260502015516 | 24 | 204 | 4.8 | 9.7 | 0.00 | 0.00 | 0.00 | 53 | 1009.5 |
| 20260502015416 | 24 | 231 | 4.8 | 9.7 | 0.00 | 0.00 | 0.00 | 53 | 1009.6 |
| 20260502015308 | 24 | 245 | 4.8 | 9.7 | 0.00 | 0.00 | 0.00 | 52 | 1009.5 |
| 20260502015213 | 24 | 239 | 4.8 | 9.7 | 0.00 | 0.00 | 0.00 | 53 | 1009.5 |
| 20260502015112 | 24 | 158 | 4.8 | 9.7 | 0.00 | 0.00 | 0.00 | 52 | 1009.5 |
| 20260502015012 | 24 | 238 | 4.8 | 9.7 | 0.00 | 0.00 | 0.00 | 52 | 1009.5 |
| 20260502014914 | 24 | 239 | 4.8 | 9.7 | 0.00 | 0.00 | 0.00 | 52 | 1009.6 |
| 20260502014829 | 24 | 160 | 4.8 | 14.5 | 0.00 | 0.00 | 0.00 | 52 | 1009.6 |
| 20260502014819 | 24 | 162 | 4.8 | 14.5 | 0.00 | 0.00 | 0.00 | 52 | 1009.6 |
| 20260502014710 | 24 | 221 | 4.8 | 14.5 | 0.00 | 0.00 | 0.00 | 51 | 1009.5 |
| 20260502014611 | 24 | 243 | 4.8 | 14.5 | 0.00 | 0.00 | 0.00 | 51 | 1009.6 |
| 20260502014526 | 24 | 250 | 4.8 | 14.5 | 0.00 | 0.00 | 0.00 | 50 | 1009.6 |
| 20260502014510 | 24 | 215 | 4.8 | 14.5 | 0.00 | 0.00 | 0.00 | 51 | 1009.6 |
| 20260502014425 | 24 | 250 | 4.8 | 14.5 | 0.00 | 0.00 | 0.00 | 50 | 1009.6 |
| 20260502014416 | 24 | 250 | 4.8 | 14.5 | 0.00 | 0.00 | 0.00 | 50 | 1009.6 |
| 20260502014211 | 24 | 233 | 4.8 | 14.5 | 0.00 | 0.00 | 0.00 | 50 | 1009.6 |
| 20260502014108 | 24 | 232 | 4.8 | 14.5 | 0.00 | 0.00 | 0.00 | 49 | 1009.6 |
| 20260502014009 | 24 | 235 | 4.8 | 14.5 | 0.00 | 0.00 | 0.00 | 49 | 1009.7 |
| 20260502013908 | 24 | 231 | 4.8 | 14.5 | 0.00 | 0.00 | 0.00 | 49 | 1009.7 |
| 20260502013811 | 24 | 226 | 4.8 | 12.9 | 0.00 | 0.00 | 0.00 | 49 | 1009.7 |
| 20260502013703 | 25 | 231 | 4.8 | 11.3 | 0.00 | 0.00 | 0.00 | 49 | 1009.7 |
| 20260502013603 | 25 | 207 | 4.8 | 11.3 | 0.00 | 0.00 | 0.00 | 48 | 1009.7 |
| 20260502013502 | 25 | 223 | 4.8 | 11.3 | 0.00 | 0.00 | 0.00 | 48 | 1009.7 |
| 20260502013402 | 25 | 240 | 4.8 | 11.3 | 0.00 | 0.00 | 0.00 | 48 | 1009.7 |
| 20260502013304 | 25 | 240 | 4.8 | 11.3 | 0.00 | 0.00 | 0.00 | 48 | 1009.7 |
| 20260502013156 | 25 | 228 | 4.8 | 11.3 | 0.00 | 0.00 | 0.00 | 48 | 1009.7 |
| 20260502013056 | 25 | 239 | 4.8 | 11.3 | 0.00 | 0.00 | 0.00 | 48 | 1009.6 |
| 20260502012957 | 25 | 225 | 4.8 | 11.3 | 0.00 | 0.00 | 0.00 | 48 | 1009.7 |
| 20260502012856 | 25 | 240 | 4.8 | 11.3 | 0.00 | 0.00 | 0.00 | 49 | 1009.7 |
| 20260502012804 | 25 | 224 | 4.8 | 11.3 | 0.00 | 0.00 | 0.00 | 49 | 1009.7 |
| 20260502012756 | 25 | 221 | 4.8 | 11.3 | 0.00 | 0.00 | 0.00 | 49 | 1009.7 |
| 20260502012653 | 25 | 184 | 6.4 | 12.9 | 0.00 | 0.00 | 0.00 | 49 | 1009.7 |
| 20260502012551 | 25 | 210 | 6.4 | 12.9 | 0.00 | 0.00 | 0.00 | 49 | 1009.6 |
| 20260502012450 | 25 | 236 | 6.4 | 12.9 | 0.00 | 0.00 | 0.00 | 48 | 1009.7 |
| 20260502012350 | 25 | 255 | 6.4 | 12.9 | 0.00 | 0.00 | 0.00 | 48 | 1009.7 |
| 20260502012257 | 25 | 239 | 6.4 | 12.9 | 0.00 | 0.00 | 0.00 | 47 | 1009.7 |
| 20260502012250 | 25 | 225 | 6.4 | 12.9 | 0.00 | 0.00 | 0.00 | 47 | 1009.7 |
| 20260502012144 | 25 | 137 | 4.8 | 12.9 | 0.00 | 0.00 | 0.00 | 47 | 1009.7 |
| 20260502012044 | 25 | 219 | 4.8 | 12.9 | 0.00 | 0.00 | 0.00 | 48 | 1009.7 |
| 20260502011945 | 25 | 269 | 4.8 | 12.9 | 0.00 | 0.00 | 0.00 | 48 | 1009.7 |
| 20260502011844 | 25 | 229 | 4.8 | 12.9 | 0.00 | 0.00 | 0.00 | 48 | 1009.7 |
| 20260502011758 | 25 | 232 | 4.8 | 12.9 | 0.00 | 0.00 | 0.00 | 48 | 1009.7 |
| 20260502011743 | 25 | 238 | 3.2 | 12.9 | 0.00 | 0.00 | 0.00 | 48 | 1009.7 |
| 20260502011641 | 25 | 259 | 3.2 | 12.9 | 0.00 | 0.00 | 0.00 | 50 | 1009.7 |
| 20260502011540 | 25 | 222 | 3.2 | 11.3 | 0.00 | 0.00 | 0.00 | 50 | 1009.7 |
| 20260502011440 | 25 | 218 | 3.2 | 11.3 | 0.00 | 0.00 | 0.00 | 50 | 1009.7 |
| 20260502011341 | 25 | 218 | 4.8 | 11.3 | 0.00 | 0.00 | 0.00 | 51 | 1009.7 |
| 20260502011258 | 25 | 242 | 4.8 | 11.3 | 0.00 | 0.00 | 0.00 | 51 | 1009.7 |
| 20260502011238 | 25 | 223 | 4.8 | 11.3 | 0.00 | 0.00 | 0.00 | 52 | 1009.7 |
| 20260502011134 | 25 | 236 | 4.8 | 11.3 | 0.00 | 0.00 | 0.00 | 52 | 1009.7 |
| 20260502011034 | 25 | 228 | 4.8 | 11.3 | 0.00 | 0.00 | 0.00 | 51 | 1009.7 |
| 20260502010934 | 25 | 174 | 4.8 | 16.1 | 0.00 | 0.00 | 0.00 | 51 | 1009.7 |
| 20260502010834 | 25 | 238 | 4.8 | 16.1 | 0.00 | 0.00 | 0.00 | 51 | 1009.8 |
| 20260502010756 | 25 | 239 | 4.8 | 16.1 | 0.00 | 0.00 | 0.00 | 51 | 1009.8 |
| 20260502010732 | 25 | 224 | 4.8 | 16.1 | 0.00 | 0.00 | 0.00 | 51 | 1009.7 |
| 20260502010631 | 25 | 229 | 6.4 | 16.1 | 0.00 | 0.00 | 0.00 | 51 | 1009.8 |
| 20260502010531 | 25 | 228 | 6.4 | 16.1 | 0.00 | 0.00 | 0.00 | 51 | 1009.8 |
| 20260502010428 | 25 | 165 | 6.4 | 16.1 | 0.00 | 0.00 | 0.00 | 51 | 1009.8 |
| 20260502010328 | 25 | 238 | 6.4 | 16.1 | 0.00 | 0.00 | 0.00 | 51 | 1009.8 |
| 20260502010255 | 25 | 231 | 6.4 | 16.1 | 0.00 | 0.00 | 0.00 | 51 | 1009.8 |
| 20260502010227 | 25 | 210 | 6.4 | 16.1 | 0.00 | 0.00 | 0.00 | 51 | 1009.8 |
| 20260502010121 | 25 | 239 | 6.4 | 16.1 | 0.00 | 0.00 | 0.00 | 51 | 1009.8 |